Observation data for Caprock Canyons on 02/22/2019      Previous  Date  Next       Current Mesonet Observations  Soil Data  Daily Summary Page  Observations in Plain Language
KQU1 220600Z 08003KT 01/M03 A2993 RMK A01 T00101032  RH  074%=      5-min Rain = 0
KQU1 220601Z 08002KT 01/M03 A2993 RMK A01 T00101032  RH  073%=      5-min Rain = 0
KQU1 220602Z 08002KT 01/M03 A2993 RMK A01 T00111032  RH  073%=      5-min Rain = 0
KQU1 220603Z 07002KT 01/M03 A2993 RMK A01 T00111032  RH  073%=      5-min Rain = 0
KQU1 220604Z 06001KT 01/M03 A2994 RMK A01 T00111031  RH  073%=      5-min Rain = 0
KQU1 220605Z 03001KT 01/M03 A2994 RMK A01 T00111031  RH  073%=      5-min Rain = 0
KQU1 220606Z 01002KT 01/M03 A2994 RMK A01 T00121030  RH  074%=      5-min Rain = 0
KQU1 220607Z 36002KT 01/M03 A2994 RMK A01 T00121029  RH  074%=      5-min Rain = 0
KQU1 220608Z 34002KT 01/M03 A2994 RMK A01 T00111032  RH  073%=      5-min Rain = 0
KQU1 220609Z 34002KT 01/M04 A2994 RMK A01 T00091035  RH  072%=      5-min Rain = 0
KQU1 220610Z 34003KT 01/M03 A2994 RMK A01 T00081034  RH  074%=      5-min Rain = 0
KQU1 220611Z 35003KT 01/M03 A2994 RMK A01 T00071034  RH  074%=      5-min Rain = 0
KQU1 220612Z 00003KT 01/M03 A2994 RMK A01 T00071034  RH  074%=      5-min Rain = 0
KQU1 220613Z 01003KT 01/M03 A2994 RMK A01 T00071033  RH  075%=      5-min Rain = 0
KQU1 220614Z 00003KT 01/M03 A2994 RMK A01 T00071033  RH  075%=      5-min Rain = 0
KQU1 220615Z 01002KT 01/M03 A2994 RMK A01 T00061034  RH  074%=      5-min Rain = 0
KQU1 220616Z 01002KT 01/M03 A2994 RMK A01 T00061033  RH  075%=      5-min Rain = 0
KQU1 220617Z 02002KT 01/M03 A2994 RMK A01 T00061032  RH  075%=      5-min Rain = 0
KQU1 220618Z 03003KT 01/M03 A2994 RMK A01 T00071032  RH  075%=      5-min Rain = 0
KQU1 220619Z 04002KT 01/M03 A2994 RMK A01 T00071031  RH  076%=      5-min Rain = 0
KQU1 220620Z 03003KT 01/M03 A2994 RMK A01 T00071029  RH  077%=      5-min Rain = 0
KQU1 220621Z 04003KT 01/M03 A2994 RMK A01 T00071029  RH  077%=      5-min Rain = 0
KQU1 220622Z 03002KT 01/M03 A2994 RMK A01 T00071028  RH  077%=      5-min Rain = 0
KQU1 220623Z 04002KT 01/M03 A2994 RMK A01 T00071028  RH  077%=      5-min Rain = 0
KQU1 220624Z 04003KT 01/M03 A2994 RMK A01 T00081027  RH  078%=      5-min Rain = 0
KQU1 220625Z 04003KT 01/M03 A2994 RMK A01 T00081027  RH  077%=      5-min Rain = 0
KQU1 220626Z 04003KT 01/M03 A2994 RMK A01 T00081027  RH  077%=      5-min Rain = 0
KQU1 220627Z 03003KT 01/M03 A2994 RMK A01 T00091026  RH  077%=      5-min Rain = 0
KQU1 220628Z 01002KT 01/M03 A2994 RMK A01 T00101026  RH  077%=      5-min Rain = 0
KQU1 220629Z 04002KT 01/M03 A2994 RMK A01 T00101027  RH  076%=      5-min Rain = 0
KQU1 220630Z 04002KT 01/M03 A2994 RMK A01 T00101027  RH  076%=      5-min Rain = 0
KQU1 220631Z 04001KT 01/M03 A2994 RMK A01 T00101027  RH  076%=      5-min Rain = 0
KQU1 220632Z 05001KT 01/M03 A2994 RMK A01 T00101027  RH  076%=      5-min Rain = 0
KQU1 220633Z 05001KT 01/M03 A2994 RMK A01 T00101027  RH  076%=      5-min Rain = 0
KQU1 220634Z 06002KT 01/M03 A2994 RMK A01 T00101027  RH  076%=      5-min Rain = 0
KQU1 220635Z 07002KT 01/M03 A2994 RMK A01 T00101027  RH  076%=      5-min Rain = 0
KQU1 220636Z 06002KT 01/M03 A2994 RMK A01 T00101027  RH  076%=      5-min Rain = 0
KQU1 220637Z 07002KT 01/M03 A2994 RMK A01 T00101027  RH  076%=      5-min Rain = 0
KQU1 220638Z 06002KT 01/M03 A2994 RMK A01 T00101027  RH  076%=      5-min Rain = 0
KQU1 220639Z 06002KT 01/M03 A2995 RMK A01 T00101027  RH  076%=      5-min Rain = 0
KQU1 220640Z 05002KT 01/M03 A2994 RMK A01 T00111027  RH  076%=      5-min Rain = 0
KQU1 220641Z 06002KT 01/M03 A2994 RMK A01 T00111027  RH  076%=      5-min Rain = 0
KQU1 220642Z 08002KT 01/M03 A2994 RMK A01 T00111027  RH  076%=      5-min Rain = 0
KQU1 220643Z 06002KT 01/M03 A2994 RMK A01 T00111027  RH  076%=      5-min Rain = 0
KQU1 220644Z 07003KT 01/M03 A2994 RMK A01 T00101028  RH  076%=      5-min Rain = 0
KQU1 220645Z 07003KT 01/M03 A2994 RMK A01 T00101028  RH  076%=      5-min Rain = 0
KQU1 220646Z 07003KT 01/M03 A2994 RMK A01 T00091028  RH  076%=      5-min Rain = 0
KQU1 220647Z 07003KT 01/M03 A2994 RMK A01 T00091028  RH  076%=      5-min Rain = 0
KQU1 220648Z 06003KT 01/M03 A2995 RMK A01 T00091028  RH  077%=      5-min Rain = 0
KQU1 220649Z 07004KT 01/M03 A2994 RMK A01 T00091027  RH  077%=      5-min Rain = 0
KQU1 220650Z 05003KT 01/M03 A2994 RMK A01 T00091027  RH  077%=      5-min Rain = 0
KQU1 220651Z 04003KT 01/M03 A2994 RMK A01 T00091026  RH  077%=      5-min Rain = 0
KQU1 220652Z 05003KT 01/M03 A2994 RMK A01 T00091025  RH  078%=      5-min Rain = 0
KQU1 220653Z 05003KT 01/M03 A2994 RMK A01 T00091025  RH  078%=      5-min Rain = 0
KQU1 220654Z 06002KT 01/M03 A2995 RMK A01 T00091026  RH  078%=      5-min Rain = 0
KQU1 220655Z 05003KT 01/M03 A2995 RMK A01 T00081026  RH  078%=      5-min Rain = 0
KQU1 220656Z 04003KT 01/M03 A2995 RMK A01 T00081026  RH  078%=      5-min Rain = 0
KQU1 220657Z 05002KT 01/M03 A2995 RMK A01 T00081026  RH  078%=      5-min Rain = 0
KQU1 220658Z 05003KT 01/M03 A2995 RMK A01 T00071027  RH  078%=      5-min Rain = 0
KQU1 220659Z 06003KT 01/M03 A2995 RMK A01 T00071026  RH  079%=      5-min Rain = 0
KQU1 220700Z 05003KT 01/M03 A2994 RMK A01 T00071026  RH  079%=      5-min Rain = 0
KQU1 220701Z 04002KT 01/M03 A2994 RMK A01 T00071026  RH  078%=      5-min Rain = 0
KQU1 220702Z 03002KT 01/M03 A2994 RMK A01 T00061027  RH  078%=      5-min Rain = 0
KQU1 220703Z 04003KT 01/M03 A2994 RMK A01 T00061026  RH  079%=      5-min Rain = 0
KQU1 220704Z 04003KT 01/M03 A2994 RMK A01 T00051027  RH  079%=      5-min Rain = 0
KQU1 220705Z 03003KT 01/M03 A2994 RMK A01 T00051027  RH  079%=      5-min Rain = 0
KQU1 220706Z 04003KT 00/M03 A2994 RMK A01 T00041028  RH  079%=      5-min Rain = 0
KQU1 220707Z 03002KT 00/M03 A2994 RMK A01 T00041027  RH  080%=      5-min Rain = 0
KQU1 220708Z 03002KT 00/M03 A2994 RMK A01 T00041026  RH  080%=      5-min Rain = 0
KQU1 220709Z 05003KT 00/M03 A2994 RMK A01 T00041026  RH  080%=      5-min Rain = 0
KQU1 220710Z 05002KT 00/M03 A2994 RMK A01 T00041025  RH  081%=      5-min Rain = 0
KQU1 220711Z 08001KT 00/M03 A2994 RMK A01 T00041025  RH  081%=      5-min Rain = 0
KQU1 220712Z 10001KT 00/M03 A2994 RMK A01 T00041025  RH  081%=      5-min Rain = 0
KQU1 220713Z 11002KT 00/M03 A2994 RMK A01 T00041025  RH  081%=      5-min Rain = 0
KQU1 220714Z 10002KT 00/M03 A2994 RMK A01 T00041026  RH  081%=      5-min Rain = 0
KQU1 220715Z 08002KT 00/M03 A2994 RMK A01 T00041026  RH  081%=      5-min Rain = 0
KQU1 220716Z 07003KT 00/M03 A2994 RMK A01 T00041025  RH  081%=      5-min Rain = 0
KQU1 220717Z 06004KT 00/M03 A2994 RMK A01 T00041025  RH  081%=      5-min Rain = 0
KQU1 220718Z 07003KT 00/M02 A2994 RMK A01 T00041024  RH  082%=      5-min Rain = 0
KQU1 220719Z 07003KT 00/M02 A2994 RMK A01 T00041023  RH  082%=      5-min Rain = 0
KQU1 220720Z 06003KT 00/M02 A2994 RMK A01 T00041023  RH  082%=      5-min Rain = 0
KQU1 220721Z 06003KT 01/M02 A2994 RMK A01 T00051023  RH  082%=      5-min Rain = 0
KQU1 220722Z 05002KT 01/M02 A2994 RMK A01 T00051022  RH  082%=      5-min Rain = 0
KQU1 220723Z 04002KT 01/M02 A2994 RMK A01 T00051022  RH  082%=      5-min Rain = 0
KQU1 220724Z 05002KT 01/M02 A2994 RMK A01 T00051022  RH  082%=      5-min Rain = 0
KQU1 220725Z 05003KT 01/M02 A2994 RMK A01 T00051022  RH  082%=      5-min Rain = 0
KQU1 220726Z 04003KT 01/M02 A2994 RMK A01 T00051021  RH  083%=      5-min Rain = 0
KQU1 220727Z 04002KT 01/M02 A2994 RMK A01 T00051021  RH  082%=      5-min Rain = 0
KQU1 220728Z 04003KT 01/M02 A2994 RMK A01 T00061021  RH  083%=      5-min Rain = 0
KQU1 220729Z 04002KT 01/M02 A2994 RMK A01 T00061021  RH  082%=      5-min Rain = 0
KQU1 220730Z 03002KT 01/M02 A2994 RMK A01 T00061021  RH  082%=      5-min Rain = 0
KQU1 220731Z 04002KT 01/M02 A2994 RMK A01 T00051021  RH  083%=      5-min Rain = 0
KQU1 220732Z 04002KT 01/M02 A2994 RMK A01 T00051021  RH  082%=      5-min Rain = 0
KQU1 220733Z 05001KT 01/M02 A2994 RMK A01 T00051022  RH  082%=      5-min Rain = 0
KQU1 220734Z 05002KT 00/M02 A2994 RMK A01 T00041024  RH  082%=      5-min Rain = 0
KQU1 220735Z 06002KT 00/M02 A2994 RMK A01 T00031024  RH  082%=      5-min Rain = 0
KQU1 220736Z 06003KT 00/M02 A2994 RMK A01 T00031022  RH  083%=      5-min Rain = 0
KQU1 220737Z 06002KT 00/M02 A2994 RMK A01 T00041021  RH  083%=      5-min Rain = 0
KQU1 220738Z 07003KT 00/M02 A2994 RMK A01 T00041021  RH  084%=      5-min Rain = 0
KQU1 220739Z 06002KT 00/M02 A2994 RMK A01 T00041020  RH  084%=      5-min Rain = 0
KQU1 220740Z 05003KT 01/M02 A2994 RMK A01 T00051020  RH  083%=      5-min Rain = 0
KQU1 220741Z 04002KT 01/M02 A2994 RMK A01 T00051020  RH  084%=      5-min Rain = 0
KQU1 220742Z 05003KT 01/M02 A2994 RMK A01 T00051019  RH  084%=      5-min Rain = 0
KQU1 220743Z 05003KT 01/M02 A2994 RMK A01 T00051018  RH  084%=      5-min Rain = 0
KQU1 220744Z 05003KT 01/M02 A2994 RMK A01 T00061019  RH  084%=      5-min Rain = 0
KQU1 220745Z 05003KT 01/M02 A2994 RMK A01 T00061018  RH  084%=      5-min Rain = 0
KQU1 220746Z 06002KT 01/M02 A2995 RMK A01 T00061017  RH  085%=      5-min Rain = 0
KQU1 220747Z 07003KT 01/M02 A2995 RMK A01 T00071017  RH  085%=      5-min Rain = 0
KQU1 220748Z 07002KT 01/M02 A2995 RMK A01 T00071016  RH  085%=      5-min Rain = 0
KQU1 220749Z 06002KT 01/M02 A2995 RMK A01 T00071016  RH  085%=      5-min Rain = 0
KQU1 220750Z 05002KT 01/M02 A2995 RMK A01 T00071016  RH  085%=      5-min Rain = 0
KQU1 220751Z 06003KT 01/M02 A2995 RMK A01 T00071015  RH  085%=      5-min Rain = 0
KQU1 220752Z 07002KT 01/M02 A2995 RMK A01 T00081015  RH  085%=      5-min Rain = 0
KQU1 220753Z 06002KT 01/M02 A2995 RMK A01 T00081015  RH  085%=      5-min Rain = 0
KQU1 220754Z 06002KT 01/M02 A2995 RMK A01 T00081015  RH  084%=      5-min Rain = 0
KQU1 220755Z 06002KT 01/M02 A2995 RMK A01 T00081016  RH  084%=      5-min Rain = 0
KQU1 220756Z 06001KT 01/M02 A2995 RMK A01 T00081016  RH  084%=      5-min Rain = 0
KQU1 220757Z 06002KT 01/M02 A2995 RMK A01 T00081015  RH  085%=      5-min Rain = 0
KQU1 220758Z 06002KT 01/M02 A2995 RMK A01 T00081015  RH  085%=      5-min Rain = 0
KQU1 220759Z 06002KT 01/M02 A2995 RMK A01 T00081015  RH  085%=      5-min Rain = 0
KQU1 220800Z 05002KT 01/M02 A2995 RMK A01 T00081015  RH  085%=      5-min Rain = 0
KQU1 220801Z 07002KT 01/M02 A2996 RMK A01 T00081015  RH  085%=      5-min Rain = 0
KQU1 220802Z 05002KT 01/M02 A2996 RMK A01 T00071015  RH  085%=      5-min Rain = 0
KQU1 220803Z 06003KT 01/M01 A2996 RMK A01 T00071014  RH  085%=      5-min Rain = 0
KQU1 220804Z 06003KT 01/M01 A2996 RMK A01 T00071014  RH  086%=      5-min Rain = 0
KQU1 220805Z 04002KT 01/M01 A2996 RMK A01 T00081013  RH  086%=      5-min Rain = 0
KQU1 220806Z 04002KT 01/M01 A2996 RMK A01 T00081013  RH  086%=      5-min Rain = 0
KQU1 220807Z 04001KT 01/M01 A2996 RMK A01 T00081013  RH  086%=      5-min Rain = 0
KQU1 220808Z 04001KT 01/M01 A2996 RMK A01 T00081013  RH  086%=      5-min Rain = 0
KQU1 220809Z 04001KT 01/M01 A2996 RMK A01 T00081012  RH  086%=      5-min Rain = 0
KQU1 220810Z 07003KT 01/M01 A2996 RMK A01 T00081012  RH  086%=      5-min Rain = 0
KQU1 220811Z 06002KT 01/M01 A2996 RMK A01 T00081012  RH  087%=      5-min Rain = 0
KQU1 220812Z 06003KT 01/M01 A2996 RMK A01 T00081011  RH  087%=      5-min Rain = 0
KQU1 220813Z 06002KT 01/M01 A2995 RMK A01 T00081011  RH  087%=      5-min Rain = 0
KQU1 220814Z 08002KT 01/M01 A2995 RMK A01 T00081010  RH  087%=      5-min Rain = 0
KQU1 220815Z 07002KT 01/M01 A2995 RMK A01 T00081010  RH  087%=      5-min Rain = 0
KQU1 220816Z 08002KT 01/M01 A2995 RMK A01 T00081010  RH  087%=      5-min Rain = 0
KQU1 220817Z 06003KT 01/M01 A2995 RMK A01 T00081010  RH  088%=      5-min Rain = 0
KQU1 220818Z 07003KT 01/M01 A2995 RMK A01 T00081010  RH  088%=      5-min Rain = 0
KQU1 220819Z 07003KT 01/M01 A2995 RMK A01 T00081010  RH  088%=      5-min Rain = 0
KQU1 220820Z 08003KT 01/M01 A2995 RMK A01 T00081010  RH  088%=      5-min Rain = 0
KQU1 220821Z 08003KT 01/M01 A2995 RMK A01 T00081010  RH  088%=      5-min Rain = 0
KQU1 220822Z 08004KT 01/M01 A2995 RMK A01 T00081009  RH  088%=      5-min Rain = 0
KQU1 220823Z 08004KT 01/M01 A2995 RMK A01 T00081009  RH  089%=      5-min Rain = 0
KQU1 220824Z 08004KT 01/M01 A2995 RMK A01 T00081009  RH  089%=      5-min Rain = 0
KQU1 220825Z 09004KT 01/M01 A2995 RMK A01 T00081009  RH  089%=      5-min Rain = 0
KQU1 220826Z 08004KT 01/M01 A2995 RMK A01 T00081009  RH  089%=      5-min Rain = 0
KQU1 220827Z 08003KT 01/M01 A2995 RMK A01 T00071009  RH  089%=      5-min Rain = 0
KQU1 220828Z 08004KT 01/M01 A2995 RMK A01 T00071009  RH  089%=      5-min Rain = 0
KQU1 220829Z 08003KT 01/M01 A2995 RMK A01 T00071009  RH  089%=      5-min Rain = 0
KQU1 220830Z 08003KT 01/M01 A2995 RMK A01 T00071008  RH  090%=      5-min Rain = 0
KQU1 220831Z 08003KT 01/M01 A2995 RMK A01 T00071008  RH  090%=      5-min Rain = 0
KQU1 220832Z 08003KT 01/M01 A2995 RMK A01 T00071008  RH  090%=      5-min Rain = 0
KQU1 220833Z 08003KT 01/M01 A2995 RMK A01 T00071008  RH  090%=      5-min Rain = 0
KQU1 220834Z 08002KT 01/M01 A2995 RMK A01 T00071008  RH  090%=      5-min Rain = 0
KQU1 220835Z 08004KT 01/M01 A2995 RMK A01 T00071007  RH  090%=      5-min Rain = 0
KQU1 220836Z 07002KT 01/M01 A2995 RMK A01 T00071007  RH  090%=      5-min Rain = 0
KQU1 220837Z 07002KT 01/M01 A2995 RMK A01 T00071007  RH  091%=      5-min Rain = 0
KQU1 220838Z 07003KT 01/M01 A2995 RMK A01 T00071006  RH  091%=      5-min Rain = 0
KQU1 220839Z 07003KT 01/M01 A2995 RMK A01 T00081005  RH  091%=      5-min Rain = 0
KQU1 220840Z 07003KT 01/M01 A2995 RMK A01 T00081005  RH  091%=      5-min Rain = 0
KQU1 220841Z 07003KT 01/M01 A2995 RMK A01 T00081005  RH  091%=      5-min Rain = 0
KQU1 220842Z 07004KT 01/M00 A2995 RMK A01 T00081004  RH  091%=      5-min Rain = 0
KQU1 220843Z 08004KT 01/M00 A2995 RMK A01 T00081004  RH  092%=      5-min Rain = 0
KQU1 220844Z 07003KT 01/M00 A2995 RMK A01 T00091003  RH  092%=      5-min Rain = 0
KQU1 220845Z 07003KT 01/M00 A2995 RMK A01 T00091003  RH  092%=      5-min Rain = 0
KQU1 220846Z 09004KT 01/M00 A2995 RMK A01 T00091003  RH  092%=      5-min Rain = 0
KQU1 220847Z 09003KT 01/M00 A2995 RMK A01 T00091003  RH  092%=      5-min Rain = 0
KQU1 220848Z 09002KT 01/M00 A2995 RMK A01 T00091003  RH  092%=      5-min Rain = 0
KQU1 220849Z 09002KT 01/M00 A2995 RMK A01 T00091003  RH  092%=      5-min Rain = 0
KQU1 220850Z 10001KT 01/M00 A2995 RMK A01 T00091003  RH  092%=      5-min Rain = 0
KQU1 220851Z 10001KT 01/M00 A2995 RMK A01 T00091003  RH  092%=      5-min Rain = 0
KQU1 220852Z 11002KT 01/M00 A2995 RMK A01 T00091002  RH  092%=      5-min Rain = 0
KQU1 220853Z 10001KT 01/M00 A2995 RMK A01 T00091002  RH  092%=      5-min Rain = 0
KQU1 220854Z 11002KT 01/M00 A2995 RMK A01 T00091002  RH  092%=      5-min Rain = 0
KQU1 220855Z 10002KT 01/M00 A2995 RMK A01 T00091002  RH  092%=      5-min Rain = 0
KQU1 220856Z 12004KT 01/M00 A2995 RMK A01 T00091002  RH  092%=      5-min Rain = 0
KQU1 220857Z 11003KT 01/M00 A2995 RMK A01 T00101001  RH  092%=      5-min Rain = 0
KQU1 220858Z 10002KT 01/M00 A2995 RMK A01 T00101001  RH  092%=      5-min Rain = 0
KQU1 220859Z 11003KT 01/M00 A2995 RMK A01 T00101001  RH  092%=      5-min Rain = 0
KQU1 220900Z 11004KT 01/M00 A2995 RMK A01 T00101001  RH  093%=      5-min Rain = 0
KQU1 220901Z 11004KT 01/00 A2995 RMK A01 T00110000  RH  093%=      5-min Rain = 0
KQU1 220902Z 11003KT 01/00 A2995 RMK A01 T00110001  RH  093%=      5-min Rain = 0
KQU1 220903Z 11004KT 01/00 A2995 RMK A01 T00110001  RH  093%=      5-min Rain = 0
KQU1 220904Z 10004KT 01/00 A2995 RMK A01 T00120001  RH  093%=      5-min Rain = 0
KQU1 220905Z 10004KT 01/00 A2995 RMK A01 T00120002  RH  093%=      5-min Rain = 0
KQU1 220906Z 10005KT 01/00 A2995 RMK A01 T00120002  RH  093%=      5-min Rain = 0
KQU1 220907Z 10005KT 01/00 A2995 RMK A01 T00120002  RH  093%=      5-min Rain = 0
KQU1 220908Z 09003KT 01/00 A2995 RMK A01 T00120002  RH  093%=      5-min Rain = 0
KQU1 220909Z 08003KT 01/00 A2995 RMK A01 T00120002  RH  093%=      5-min Rain = 0
KQU1 220910Z 09003KT 01/00 A2995 RMK A01 T00120003  RH  093%=      5-min Rain = 0
KQU1 220911Z 07003KT 01/00 A2996 RMK A01 T00130003  RH  093%=      5-min Rain = 0
KQU1 220912Z 06003KT 01/00 A2996 RMK A01 T00130003  RH  093%=      5-min Rain = 0
KQU1 220913Z 05003KT 01/00 A2996 RMK A01 T00130003  RH  093%=      5-min Rain = 0
KQU1 220914Z 05003KT 01/00 A2996 RMK A01 T00130003  RH  093%=      5-min Rain = 0
KQU1 220915Z 03002KT 01/00 A2996 RMK A01 T00130003  RH  093%=      5-min Rain = 0
KQU1 220916Z 03003KT 01/00 A2996 RMK A01 T00130003  RH  094%=      5-min Rain = 0
KQU1 220917Z 04004KT 01/00 A2996 RMK A01 T00130004  RH  094%=      5-min Rain = 0
KQU1 220918Z 05003KT 01/00 A2996 RMK A01 T00130004  RH  094%=      5-min Rain = 0
KQU1 220919Z 05003KT 01/00 A2996 RMK A01 T00130004  RH  094%=      5-min Rain = 0
KQU1 220920Z 06004KT 01/00 A2996 RMK A01 T00130004  RH  094%=      5-min Rain = 0
KQU1 220921Z 05004KT 01/00 A2996 RMK A01 T00130004  RH  094%=      5-min Rain = 0
KQU1 220922Z 05003KT 01/00 A2996 RMK A01 T00130004  RH  094%=      5-min Rain = 0
KQU1 220923Z 04003KT 01/00 A2996 RMK A01 T00130004  RH  094%=      5-min Rain = 0
KQU1 220924Z 05003KT 01/01 A2996 RMK A01 T00130005  RH  094%=      5-min Rain = 0
KQU1 220925Z 05002KT 01/01 A2996 RMK A01 T00130005  RH  094%=      5-min Rain = 0
KQU1 220926Z 06004KT 01/01 A2996 RMK A01 T00130005  RH  094%=      5-min Rain = 0
KQU1 220927Z 06003KT 01/01 A2996 RMK A01 T00130005  RH  094%=      5-min Rain = 0
KQU1 220928Z 06004KT 01/01 A2996 RMK A01 T00130005  RH  094%=      5-min Rain = 0
KQU1 220929Z 06004KT 01/01 A2996 RMK A01 T00130005  RH  094%=      5-min Rain = 0
KQU1 220930Z 07004KT 01/01 A2996 RMK A01 T00130005  RH  094%=      5-min Rain = 0
KQU1 220931Z 06003KT 01/01 A2996 RMK A01 T00130005  RH  094%=      5-min Rain = 0
KQU1 220932Z 07004KT 01/01 A2996 RMK A01 T00130005  RH  094%=      5-min Rain = 0
KQU1 220933Z 06004KT 01/01 A2995 RMK A01 T00130005  RH  094%=      5-min Rain = 0
KQU1 220934Z 05003KT 01/01 A2995 RMK A01 T00130005  RH  094%=      5-min Rain = 0
KQU1 220935Z 03004KT 01/01 A2995 RMK A01 T00130005  RH  095%=      5-min Rain = 0
KQU1 220936Z 04004KT 01/01 A2995 RMK A01 T00130006  RH  095%=      5-min Rain = 0
KQU1 220937Z 04004KT 01/01 A2995 RMK A01 T00130006  RH  095%=      5-min Rain = 0
KQU1 220938Z 03003KT 01/01 A2995 RMK A01 T00130006  RH  095%=      5-min Rain = 0
KQU1 220939Z 02003KT 01/01 A2995 RMK A01 T00130005  RH  095%=      5-min Rain = 0
KQU1 220940Z 00003KT 01/00 A2996 RMK A01 T00130004  RH  094%=      5-min Rain = 0
KQU1 220941Z 36004KT 01/00 A2996 RMK A01 T00120003  RH  094%=      5-min Rain = 0
KQU1 220942Z 35004KT 01/00 A2995 RMK A01 T00110002  RH  094%=      5-min Rain = 0
KQU1 220943Z 36004KT 01/00 A2995 RMK A01 T00100001  RH  094%=      5-min Rain = 0
KQU1 220944Z 00005KT 01/00 A2995 RMK A01 T00100001  RH  094%=      5-min Rain = 0
KQU1 220945Z 00005KT 01/00 A2995 RMK A01 T00090000  RH  094%=      5-min Rain = 0
KQU1 220946Z 35002KT 01/00 A2995 RMK A01 T000900-0  RH  094%=      5-min Rain = 0
KQU1 220947Z 36001KT 01/00 A2995 RMK A01 T00090000  RH  094%=      5-min Rain = 0
KQU1 220948Z 01002KT 01/00 A2995 RMK A01 T00090000  RH  094%=      5-min Rain = 0
KQU1 220949Z 35002KT 01/00 A2995 RMK A01 T00090000  RH  094%=      5-min Rain = 0
KQU1 220950Z 36003KT 01/00 A2995 RMK A01 T00090000  RH  094%=      5-min Rain = 0
KQU1 220951Z 36005KT 01/00 A2995 RMK A01 T00090000  RH  094%=      5-min Rain = 0
KQU1 220952Z 34003KT 01/00 A2995 RMK A01 T00090000  RH  094%=      5-min Rain = 0
KQU1 220953Z 36004KT 01/00 A2995 RMK A01 T00090000  RH  094%=      5-min Rain = 0
KQU1 220954Z 36005KT 01/00 A2995 RMK A01 T00090000  RH  094%=      5-min Rain = 0
KQU1 220955Z 36005KT 01/00 A2995 RMK A01 T00090000  RH  094%=      5-min Rain = 0
KQU1 220956Z 00005KT 01/00 A2995 RMK A01 T00090000  RH  094%=      5-min Rain = 0
KQU1 220957Z 00004KT 01/00 A2995 RMK A01 T00090000  RH  094%=      5-min Rain = 0
KQU1 220958Z 00005KT 01/00 A2995 RMK A01 T00090000  RH  094%=      5-min Rain = 0
KQU1 220959Z 00005KT 01/00 A2995 RMK A01 T00090000  RH  094%=      5-min Rain = 0
KQU1 221000Z 01004KT 01/00 A2995 RMK A01 T000900-0  RH  094%=      5-min Rain = 0
KQU1 221001Z 02004KT 01/00 A2995 RMK A01 T00090000  RH  094%=      5-min Rain = 0
KQU1 221002Z 01005KT 01/00 A2995 RMK A01 T000900-0  RH  094%=      5-min Rain = 0
KQU1 221003Z 02005KT 01/00 A2995 RMK A01 T000900-0  RH  094%=      5-min Rain = 0
KQU1 221004Z 03004KT 01/00 A2995 RMK A01 T000900-0  RH  094%=      5-min Rain = 0
KQU1 221005Z 02004KT 01/00 A2995 RMK A01 T000900-0  RH  094%=      5-min Rain = 0
KQU1 221006Z 02002KT 01/00 A2995 RMK A01 T00090000  RH  094%=      5-min Rain = 0
KQU1 221007Z 01004KT 01/00 A2995 RMK A01 T00090000  RH  094%=      5-min Rain = 0
KQU1 221008Z 35004KT 01/00 A2995 RMK A01 T00090000  RH  094%=      5-min Rain = 0
KQU1 221009Z 00004KT 01/00 A2995 RMK A01 T00090000  RH  094%=      5-min Rain = 0
KQU1 221010Z 02002KT 01/00 A2995 RMK A01 T00090000  RH  094%=      5-min Rain = 0
KQU1 221011Z 02003KT 01/00 A2995 RMK A01 T00090001  RH  094%=      5-min Rain = 0
KQU1 221012Z 00002KT 01/00 A2995 RMK A01 T00090001  RH  094%=      5-min Rain = 0
KQU1 221013Z 03004KT 01/00 A2995 RMK A01 T00090001  RH  094%=      5-min Rain = 0
KQU1 221014Z 04005KT 01/00 A2995 RMK A01 T00090001  RH  094%=      5-min Rain = 0
KQU1 221015Z 04006KT 01/00 A2994 RMK A01 T00090001  RH  094%=      5-min Rain = 0
KQU1 221016Z 03006KT 01/00 A2994 RMK A01 T00090001  RH  094%=      5-min Rain = 0
KQU1 221017Z 03005KT 01/00 A2995 RMK A01 T00090001  RH  095%=      5-min Rain = 0
KQU1 221018Z 02004KT 01/00 A2995 RMK A01 T00090001  RH  095%=      5-min Rain = 0
KQU1 221019Z 03004KT 01/00 A2995 RMK A01 T00090002  RH  095%=      5-min Rain = 0
KQU1 221020Z 03005KT 01/00 A2995 RMK A01 T00090001  RH  095%=      5-min Rain = 0
KQU1 221021Z 03004KT 01/00 A2995 RMK A01 T00090001  RH  095%=      5-min Rain = 0
KQU1 221022Z 02001KT 01/00 A2995 RMK A01 T00080001  RH  095%=      5-min Rain = 0
KQU1 221023Z 02003KT 01/00 A2995 RMK A01 T00080001  RH  095%=      5-min Rain = 0
KQU1 221024Z 03004KT 01/00 A2995 RMK A01 T00080001  RH  095%=      5-min Rain = 0
KQU1 221025Z 03003KT 01/00 A2995 RMK A01 T00080001  RH  095%=      5-min Rain = 0
KQU1 221026Z 01002KT 01/00 A2995 RMK A01 T00080001  RH  095%=      5-min Rain = 0
KQU1 221027Z 36003KT 01/00 A2995 RMK A01 T00080001  RH  095%=      5-min Rain = 0
KQU1 221028Z 02003KT 01/00 A2995 RMK A01 T00080001  RH  095%=      5-min Rain = 0
KQU1 221029Z 02004KT 01/00 A2995 RMK A01 T00080001  RH  095%=      5-min Rain = 0
KQU1 221030Z 03003KT 01/00 A2995 RMK A01 T00080001  RH  095%=      5-min Rain = 0
KQU1 221031Z 01003KT 01/00 A2995 RMK A01 T00080001  RH  095%=      5-min Rain = 0
KQU1 221032Z 01003KT 01/00 A2995 RMK A01 T00080001  RH  095%=      5-min Rain = 0
KQU1 221033Z 02002KT 01/00 A2995 RMK A01 T00070001  RH  095%=      5-min Rain = 0
KQU1 221034Z 01003KT 01/00 A2995 RMK A01 T00070001  RH  095%=      5-min Rain = 0
KQU1 221035Z 36003KT 01/00 A2995 RMK A01 T00070001  RH  095%=      5-min Rain = 0
KQU1 221036Z 35002KT 01/00 A2995 RMK A01 T00070001  RH  096%=      5-min Rain = 0
KQU1 221037Z 35003KT 01/00 A2995 RMK A01 T00070001  RH  096%=      5-min Rain = 0
KQU1 221038Z 35004KT 01/00 A2995 RMK A01 T00070001  RH  096%=      5-min Rain = 0
KQU1 221039Z 36002KT 01/00 A2995 RMK A01 T00070001  RH  096%=      5-min Rain = 0
KQU1 221040Z 00002KT 01/00 A2995 RMK A01 T00070001  RH  096%=      5-min Rain = 0
KQU1 221041Z 01003KT 01/00 A2995 RMK A01 T00080002  RH  096%=      5-min Rain = 0
KQU1 221042Z 35004KT 01/00 A2995 RMK A01 T00080002  RH  096%=      5-min Rain = 0
KQU1 221043Z 36004KT 01/00 A2995 RMK A01 T00080002  RH  096%=      5-min Rain = 0
KQU1 221044Z 36003KT 01/00 A2995 RMK A01 T00080002  RH  096%=      5-min Rain = 0
KQU1 221045Z 35004KT 01/00 A2996 RMK A01 T00080002  RH  096%=      5-min Rain = 0
KQU1 221046Z 35004KT 01/00 A2996 RMK A01 T00080002  RH  096%=      5-min Rain = 0
KQU1 221047Z 01004KT 01/00 A2996 RMK A01 T00080002  RH  096%=      5-min Rain = 0
KQU1 221048Z 35004KT 01/00 A2996 RMK A01 T00080002  RH  096%=      5-min Rain = 0
KQU1 221049Z 35005KT 01/00 A2996 RMK A01 T00080002  RH  096%=      5-min Rain = 0
KQU1 221050Z 34004KT 01/00 A2996 RMK A01 T00080003  RH  096%=      5-min Rain = 0
KQU1 221051Z 35003KT 01/00 A2996 RMK A01 T00080003  RH  096%=      5-min Rain = 0
KQU1 221052Z 36004KT 01/00 A2996 RMK A01 T00080003  RH  096%=      5-min Rain = 0
KQU1 221053Z 35003KT 01/00 A2996 RMK A01 T00080003  RH  096%=      5-min Rain = 0
KQU1 221054Z 36003KT 01/00 A2996 RMK A01 T00090003  RH  096%=      5-min Rain = 0
KQU1 221055Z 01003KT 01/00 A2996 RMK A01 T00090004  RH  096%=      5-min Rain = 0
KQU1 221056Z 00004KT 01/00 A2995 RMK A01 T00090003  RH  096%=      5-min Rain = 0
KQU1 221057Z 36004KT 01/00 A2995 RMK A01 T00080003  RH  096%=      5-min Rain = 0
KQU1 221058Z 01003KT 01/00 A2995 RMK A01 T00080003  RH  096%=      5-min Rain = 0
KQU1 221059Z 01003KT 01/00 A2995 RMK A01 T00080003  RH  097%=      5-min Rain = 0
KQU1 221100Z 01003KT 01/00 A2995 RMK A01 T00080004  RH  097%=      5-min Rain = 0
KQU1 221101Z 01002KT 01/00 A2995 RMK A01 T00090004  RH  097%=      5-min Rain = 0
KQU1 221102Z 01002KT 01/00 A2995 RMK A01 T00090004  RH  097%=      5-min Rain = 0
KQU1 221103Z 02002KT 01/00 A2995 RMK A01 T00090004  RH  097%=      5-min Rain = 0
KQU1 221104Z 02003KT 01/00 A2995 RMK A01 T00090004  RH  097%=      5-min Rain = 0
KQU1 221105Z 01003KT 01/00 A2995 RMK A01 T00090004  RH  097%=      5-min Rain = 0
KQU1 221106Z 00003KT 01/00 A2995 RMK A01 T00090004  RH  097%=      5-min Rain = 0
KQU1 221107Z 02002KT 01/00 A2995 RMK A01 T00080004  RH  097%=      5-min Rain = 0
KQU1 221108Z 00004KT 01/00 A2995 RMK A01 T00080004  RH  097%=      5-min Rain = 0
KQU1 221109Z 36003KT 01/00 A2995 RMK A01 T00080004  RH  097%=      5-min Rain = 0
KQU1 221110Z 00004KT 01/00 A2995 RMK A01 T00080003  RH  097%=      5-min Rain = 0
KQU1 221111Z 36002KT 01/00 A2995 RMK A01 T00080003  RH  097%=      5-min Rain = 0
KQU1 221112Z 01003KT 01/00 A2996 RMK A01 T00080003  RH  097%=      5-min Rain = 0
KQU1 221113Z 01001KT 01/00 A2996 RMK A01 T00080003  RH  097%=      5-min Rain = 0
KQU1 221114Z 01002KT 01/00 A2995 RMK A01 T00080003  RH  097%=      5-min Rain = 0
KQU1 221115Z 01003KT 01/00 A2995 RMK A01 T00080003  RH  097%=      5-min Rain = 0
KQU1 221116Z 03001KT 01/00 A2995 RMK A01 T00080003  RH  097%=      5-min Rain = 0
KQU1 221117Z 03002KT 01/00 A2995 RMK A01 T00080003  RH  097%=      5-min Rain = 0
KQU1 221118Z 02004KT 01/00 A2995 RMK A01 T00080003  RH  097%=      5-min Rain = 0
KQU1 221119Z 03003KT 01/00 A2995 RMK A01 T00080003  RH  097%=      5-min Rain = 0
KQU1 221120Z 04003KT 01/00 A2995 RMK A01 T00080003  RH  097%=      5-min Rain = 0
KQU1 221121Z 02003KT 01/00 A2995 RMK A01 T00080004  RH  097%=      5-min Rain = 0
KQU1 221122Z 03003KT 01/00 A2995 RMK A01 T00080004  RH  097%=      5-min Rain = 0
KQU1 221123Z 04003KT 01/00 A2995 RMK A01 T00080003  RH  097%=      5-min Rain = 0
KQU1 221124Z 03002KT 01/00 A2995 RMK A01 T00070003  RH  097%=      5-min Rain = 0
KQU1 221125Z 04003KT 01/00 A2995 RMK A01 T00070003  RH  097%=      5-min Rain = 0
KQU1 221126Z 04004KT 01/00 A2995 RMK A01 T00070003  RH  097%=      5-min Rain = 0
KQU1 221127Z 04003KT 01/00 A2995 RMK A01 T00070003  RH  097%=      5-min Rain = 0
KQU1 221128Z 03003KT 01/00 A2995 RMK A01 T00070003  RH  097%=      5-min Rain = 0
KQU1 221129Z 02003KT 01/00 A2995 RMK A01 T00070003  RH  097%=      5-min Rain = 0
KQU1 221130Z 03003KT 01/00 A2995 RMK A01 T00070003  RH  097%=      5-min Rain = 0
KQU1 221131Z 03003KT 01/00 A2996 RMK A01 T00070004  RH  098%=      5-min Rain = 0
KQU1 221132Z 02003KT 01/00 A2996 RMK A01 T00070004  RH  098%=      5-min Rain = 0
KQU1 221133Z 02003KT 01/00 A2996 RMK A01 T00070004  RH  098%=      5-min Rain = 0
KQU1 221134Z 03004KT 01/00 A2996 RMK A01 T00080004  RH  098%=      5-min Rain = 0
KQU1 221135Z 02004KT 01/00 A2996 RMK A01 T00080004  RH  097%=      5-min Rain = 0
KQU1 221136Z 02004KT 01/00 A2996 RMK A01 T00070004  RH  098%=      5-min Rain = 0
KQU1 221137Z 02003KT 01/00 A2996 RMK A01 T00070004  RH  098%=      5-min Rain = 0
KQU1 221138Z 03002KT 01/00 A2996 RMK A01 T00070004  RH  098%=      5-min Rain = 0
KQU1 221139Z 01002KT 01/00 A2996 RMK A01 T00070004  RH  098%=      5-min Rain = 0
KQU1 221140Z 02002KT 01/00 A2996 RMK A01 T00070004  RH  098%=      5-min Rain = 0
KQU1 221141Z 01002KT 01/00 A2996 RMK A01 T00070004  RH  098%=      5-min Rain = 0
KQU1 221142Z 02002KT 01/00 A2996 RMK A01 T00070004  RH  098%=      5-min Rain = 0
KQU1 221143Z 01003KT 01/00 A2996 RMK A01 T00070004  RH  098%=      5-min Rain = 0
KQU1 221144Z 03002KT 01/00 A2996 RMK A01 T00070004  RH  098%=      5-min Rain = 0
KQU1 221145Z 02003KT 01/00 A2996 RMK A01 T00070004  RH  098%=      5-min Rain = 0
KQU1 221146Z 01003KT 01/00 A2995 RMK A01 T00070004  RH  098%=      5-min Rain = 0
KQU1 221147Z 36002KT 01/00 A2995 RMK A01 T00070004  RH  098%=      5-min Rain = 0
KQU1 221148Z 01003KT 01/01 A2995 RMK A01 T00080005  RH  098%=      5-min Rain = 0
KQU1 221149Z 01003KT 01/01 A2995 RMK A01 T00080005  RH  098%=      5-min Rain = 0
KQU1 221150Z 02003KT 01/01 A2996 RMK A01 T00080005  RH  098%=      5-min Rain = 0
KQU1 221151Z 03004KT 01/01 A2995 RMK A01 T00070005  RH  098%=      5-min Rain = 0
KQU1 221152Z 01002KT 01/01 A2995 RMK A01 T00070005  RH  098%=      5-min Rain = 0
KQU1 221153Z 02004KT 01/01 A2995 RMK A01 T00080005  RH  098%=      5-min Rain = 0
KQU1 221154Z 02004KT 01/01 A2995 RMK A01 T00080005  RH  098%=      5-min Rain = 0
KQU1 221155Z 01003KT 01/01 A2995 RMK A01 T00080005  RH  098%=      5-min Rain = 0
KQU1 221156Z 02001KT 01/01 A2996 RMK A01 T00080005  RH  098%=      5-min Rain = 0
KQU1 221157Z 36002KT 01/01 A2996 RMK A01 T00080005  RH  098%=      5-min Rain = 0
KQU1 221158Z 35003KT 01/01 A2996 RMK A01 T00080005  RH  098%=      5-min Rain = 0
KQU1 221159Z 00003KT 01/01 A2996 RMK A01 T00080005  RH  098%=      5-min Rain = 0
KQU1 221200Z 01002KT 01/01 A2996 RMK A01 T00080005  RH  098%=      5-min Rain = 0
KQU1 221201Z 01001KT 01/01 A2996 RMK A01 T00080005  RH  098%=      5-min Rain = 0
KQU1 221202Z 02002KT 01/01 A2996 RMK A01 T00080005  RH  098%=      5-min Rain = 0
KQU1 221203Z 02001KT 01/01 A2996 RMK A01 T00080005  RH  098%=      5-min Rain = 0
KQU1 221204Z 02002KT 01/01 A2996 RMK A01 T00080005  RH  098%=      5-min Rain = 0
KQU1 221205Z 01002KT 01/01 A2996 RMK A01 T00080005  RH  098%=      5-min Rain = 0
KQU1 221206Z 02003KT 01/01 A2996 RMK A01 T00080005  RH  098%=      5-min Rain = 0
KQU1 221207Z 01003KT 01/01 A2996 RMK A01 T00080006  RH  098%=      5-min Rain = 0
KQU1 221208Z 03005KT 01/01 A2995 RMK A01 T00080006  RH  098%=      5-min Rain = 0
KQU1 221209Z 03004KT 01/01 A2996 RMK A01 T00080006  RH  098%=      5-min Rain = 0
KQU1 221210Z 03003KT 01/01 A2996 RMK A01 T00080006  RH  098%=      5-min Rain = 0
KQU1 221211Z 02004KT 01/01 A2996 RMK A01 T00080006  RH  098%=      5-min Rain = 0
KQU1 221212Z 02004KT 01/01 A2996 RMK A01 T00080006  RH  098%=      5-min Rain = 0
KQU1 221213Z 03004KT 01/01 A2996 RMK A01 T00080006  RH  098%=      5-min Rain = 0
KQU1 221214Z 02004KT 01/01 A2996 RMK A01 T00080006  RH  099%=      5-min Rain = 0
KQU1 221215Z 04005KT 01/01 A2996 RMK A01 T00080006  RH  099%=      5-min Rain = 0
KQU1 221216Z 03004KT 01/01 A2996 RMK A01 T00080006  RH  099%=      5-min Rain = 0
KQU1 221217Z 04003KT 01/01 A2996 RMK A01 T00080006  RH  099%=      5-min Rain = 0
KQU1 221218Z 03004KT 01/01 A2996 RMK A01 T00080006  RH  099%=      5-min Rain = 0
KQU1 221219Z 05003KT 01/01 A2996 RMK A01 T00080006  RH  099%=      5-min Rain = 0
KQU1 221220Z 05004KT 01/01 A2996 RMK A01 T00080007  RH  099%=      5-min Rain = 0
KQU1 221221Z 05004KT 01/01 A2996 RMK A01 T00090007  RH  099%=      5-min Rain = 0
KQU1 221222Z 05004KT 01/01 A2996 RMK A01 T00090007  RH  099%=      5-min Rain = 0
KQU1 221223Z 05004KT 01/01 A2996 RMK A01 T00090007  RH  099%=      5-min Rain = 0
KQU1 221224Z 05003KT 01/01 A2996 RMK A01 T00080006  RH  099%=      5-min Rain = 0
KQU1 221225Z 07004KT 01/01 A2996 RMK A01 T00080006  RH  099%=      5-min Rain = 0
KQU1 221226Z 07005KT 01/01 A2996 RMK A01 T00080007  RH  099%=      5-min Rain = 0
KQU1 221227Z 07005KT 01/01 A2996 RMK A01 T00080007  RH  099%=      5-min Rain = 0
KQU1 221228Z 07004KT 01/01 A2996 RMK A01 T00090007  RH  099%=      5-min Rain = 0
KQU1 221229Z 06006KT 01/01 A2996 RMK A01 T00090007  RH  099%=      5-min Rain = 0
KQU1 221230Z 07006KT 01/01 A2996 RMK A01 T00090007  RH  099%=      5-min Rain = 0
KQU1 221231Z 05004KT 01/01 A2996 RMK A01 T00090007  RH  099%=      5-min Rain = 0
KQU1 221232Z 05003KT 01/01 A2996 RMK A01 T00090007  RH  099%=      5-min Rain = 0
KQU1 221233Z 04004KT 01/01 A2996 RMK A01 T00090007  RH  099%=      5-min Rain = 0
KQU1 221234Z 04005KT 01/01 A2996 RMK A01 T00090007  RH  099%=      5-min Rain = 0
KQU1 221235Z 05005KT 01/01 A2996 RMK A01 T00090007  RH  099%=      5-min Rain = 0
KQU1 221236Z 05005KT 01/01 A2996 RMK A01 T00090007  RH  099%=      5-min Rain = 0
KQU1 221237Z 05005KT 01/01 A2996 RMK A01 T00090007  RH  099%=      5-min Rain = 0
KQU1 221238Z 06004KT 01/01 A2996 RMK A01 T00090007  RH  099%=      5-min Rain = 0
KQU1 221239Z 07004KT 01/01 A2996 RMK A01 T00090008  RH  099%=      5-min Rain = 0
KQU1 221240Z 05004KT 01/01 A2996 RMK A01 T00090008  RH  099%=      5-min Rain = 0
KQU1 221241Z 06004KT 01/01 A2996 RMK A01 T00100008  RH  099%=      5-min Rain = 0
KQU1 221242Z 07004KT 01/01 A2996 RMK A01 T00100009  RH  099%=      5-min Rain = 0
KQU1 221243Z 06004KT 01/01 A2997 RMK A01 T00100009  RH  099%=      5-min Rain = 0
KQU1 221244Z 06005KT 01/01 A2997 RMK A01 T00100009  RH  099%=      5-min Rain = 0
KQU1 221245Z 06005KT 01/01 A2997 RMK A01 T00100009  RH  099%=      5-min Rain = 0
KQU1 221246Z 07004KT 01/01 A2997 RMK A01 T00100009  RH  099%=      5-min Rain = 0
KQU1 221247Z 06003KT 01/01 A2996 RMK A01 T00100009  RH  099%=      5-min Rain = 0
KQU1 221248Z 05003KT 01/01 A2996 RMK A01 T00100009  RH  099%=      5-min Rain = 0
KQU1 221249Z 06004KT 01/01 A2996 RMK A01 T00100009  RH  099%=      5-min Rain = 0
KQU1 221250Z 06004KT 01/01 A2996 RMK A01 T00100009  RH  099%=      5-min Rain = 0
KQU1 221251Z 08004KT 01/01 A2996 RMK A01 T00100009  RH  099%=      5-min Rain = 0
KQU1 221252Z 10004KT 01/01 A2996 RMK A01 T00100009  RH  099%=      5-min Rain = 0
KQU1 221253Z 08004KT 01/01 A2996 RMK A01 T00110009  RH  099%=      5-min Rain = 0
KQU1 221254Z 09003KT 01/01 A2996 RMK A01 T00110009  RH  099%=      5-min Rain = 0
KQU1 221255Z 09002KT 01/01 A2996 RMK A01 T00100009  RH  099%=      5-min Rain = 0
KQU1 221256Z 10003KT 01/01 A2996 RMK A01 T00110010  RH  099%=      5-min Rain = 0
KQU1 221257Z 08005KT 01/01 A2996 RMK A01 T00110010  RH  099%=      5-min Rain = 0
KQU1 221258Z 09004KT 01/01 A2997 RMK A01 T00110010  RH  099%=      5-min Rain = 0
KQU1 221259Z 09002KT 01/01 A2997 RMK A01 T00110011  RH  099%=      5-min Rain = 0
KQU1 221300Z 10004KT 01/01 A2997 RMK A01 T00120011  RH  099%=      5-min Rain = 0
KQU1 221301Z 09004KT 01/01 A2997 RMK A01 T00120011  RH  099%=      5-min Rain = 0
KQU1 221302Z 08005KT 01/01 A2997 RMK A01 T00120012  RH  100%=      5-min Rain = 0
KQU1 221303Z 09006KT 01/01 A2997 RMK A01 T00130012  RH  100%=      5-min Rain = 0
KQU1 221304Z 08006KT 01/01 A2997 RMK A01 T00130012  RH  099%=      5-min Rain = 0
KQU1 221305Z 07005KT 01/01 A2997 RMK A01 T00130012  RH  099%=      5-min Rain = 0
KQU1 221306Z 07005KT 01/01 A2997 RMK A01 T00130012  RH  100%=      5-min Rain = 0
KQU1 221307Z 06005KT 01/01 A2997 RMK A01 T00130012  RH  099%=      5-min Rain = 0
KQU1 221308Z 06005KT 01/01 A2997 RMK A01 T00130013  RH  099%=      5-min Rain = 0
KQU1 221309Z 06005KT 01/01 A2997 RMK A01 T00130013  RH  099%=      5-min Rain = 0
KQU1 221310Z 06005KT 01/01 A2997 RMK A01 T00140013  RH  099%=      5-min Rain = 0
KQU1 221311Z 05004KT 01/01 A2997 RMK A01 T00130013  RH  099%=      5-min Rain = 0
KQU1 221312Z 05004KT 01/01 A2997 RMK A01 T00140013  RH  099%=      5-min Rain = 0
KQU1 221313Z 06004KT 01/01 A2997 RMK A01 T00140013  RH  100%=      5-min Rain = 0
KQU1 221314Z 05004KT 01/01 A2997 RMK A01 T00140013  RH  100%=      5-min Rain = 0
KQU1 221315Z 05004KT 01/01 A2997 RMK A01 T00140013  RH  099%=      5-min Rain = 0
KQU1 221316Z 06005KT 01/01 A2997 RMK A01 T00140013  RH  099%=      5-min Rain = 0
KQU1 221317Z 06005KT 01/01 A2997 RMK A01 T00140013  RH  099%=      5-min Rain = 0
KQU1 221318Z 06005KT 01/01 A2997 RMK A01 T00140013  RH  100%=      5-min Rain = 0
KQU1 221319Z 06003KT 01/01 A2997 RMK A01 T00140013  RH  100%=      5-min Rain = 0
KQU1 221320Z 07005KT 01/01 A2997 RMK A01 T00140014  RH  100%=      5-min Rain = 0
KQU1 221321Z 07004KT 02/01 A2997 RMK A01 T00150014  RH  100%=      5-min Rain = 0
KQU1 221322Z 07003KT 02/01 A2997 RMK A01 T00150014  RH  100%=      5-min Rain = 0
KQU1 221323Z 06002KT 02/01 A2997 RMK A01 T00150014  RH  100%=      5-min Rain = 0
KQU1 221324Z 07002KT 02/01 A2997 RMK A01 T00150014  RH  100%=      5-min Rain = 0
KQU1 221325Z 07004KT 02/01 A2997 RMK A01 T00150014  RH  100%=      5-min Rain = 0
KQU1 221326Z 08005KT 02/01 A2997 RMK A01 T00150014  RH  100%=      5-min Rain = 0
KQU1 221327Z 08007KT 02/02 A2997 RMK A01 T00150015  RH  100%=      5-min Rain = 0
KQU1 221328Z 08007KT 02/02 A2997 RMK A01 T00150015  RH  100%=      5-min Rain = 0
KQU1 221329Z 08008KT 02/02 A2997 RMK A01 T00160015  RH  100%=      5-min Rain = 0
KQU1 221330Z 08009KT 02/02 A2997 RMK A01 T00160015  RH  100%=      5-min Rain = 0
KQU1 221331Z 08009KT 02/02 A2996 RMK A01 T00160015  RH  100%=      5-min Rain = 0
KQU1 221332Z 08009KT 02/02 A2997 RMK A01 T00160016  RH  100%=      5-min Rain = 0
KQU1 221333Z 08006KT 02/02 A2997 RMK A01 T00160015  RH  100%=      5-min Rain = 0
KQU1 221334Z 09005KT 02/02 A2997 RMK A01 T00160016  RH  100%=      5-min Rain = 0
KQU1 221335Z 10008KT 02/02 A2997 RMK A01 T00160016  RH  100%=      5-min Rain = 0
KQU1 221336Z 10008KT 02/02 A2998 RMK A01 T00160016  RH  100%=      5-min Rain = 0
KQU1 221337Z 10008KT 02/02 A2998 RMK A01 T00160016  RH  100%=      5-min Rain = 0
KQU1 221338Z 09006KT 02/02 A2998 RMK A01 T00160015  RH  100%=      5-min Rain = 0
KQU1 221339Z 09007KT 02/02 A2998 RMK A01 T00160016  RH  100%=      5-min Rain = 0
KQU1 221340Z 09005KT 02/02 A2998 RMK A01 T00160016  RH  100%=      5-min Rain = 0
KQU1 221341Z 10004KT 02/02 A2998 RMK A01 T00160016  RH  100%=      5-min Rain = 0
KQU1 221342Z 10006KT 02/02 A2998 RMK A01 T00170016  RH  100%=      5-min Rain = 0
KQU1 221343Z 09008KT 02/02 A2998 RMK A01 T00170016  RH  100%=      5-min Rain = 0
KQU1 221344Z 09008KT 02/02 A2998 RMK A01 T00170016  RH  100%=      5-min Rain = 0
KQU1 221345Z 10007KT 02/02 A2998 RMK A01 T00170016  RH  100%=      5-min Rain = 0
KQU1 221346Z 10006KT 02/02 A2998 RMK A01 T00160016  RH  100%=      5-min Rain = 0
KQU1 221347Z 09007KT 02/02 A2998 RMK A01 T00160016  RH  100%=      5-min Rain = 0
KQU1 221348Z 08006KT 02/02 A2998 RMK A01 T00170016  RH  100%=      5-min Rain = 0
KQU1 221349Z 10005KT 02/02 A2998 RMK A01 T00170016  RH  100%=      5-min Rain = 0
KQU1 221350Z 11004KT 02/02 A2998 RMK A01 T00170016  RH  100%=      5-min Rain = 0
KQU1 221351Z 11003KT 02/02 A2999 RMK A01 T00170016  RH  100%=      5-min Rain = 0
KQU1 221352Z 10002KT 02/02 A2999 RMK A01 T00170017  RH  100%=      5-min Rain = 0
KQU1 221353Z 11003KT 02/02 A2999 RMK A01 T00170017  RH  100%=      5-min Rain = 0
KQU1 221354Z 11005KT 02/02 A2999 RMK A01 T00170017  RH  100%=      5-min Rain = 0
KQU1 221355Z 11005KT 02/02 A2999 RMK A01 T00170017  RH  100%=      5-min Rain = 0
KQU1 221356Z 10006KT 02/02 A2999 RMK A01 T00170017  RH  100%=      5-min Rain = 0
KQU1 221357Z 12005KT 02/02 A2999 RMK A01 T00170017  RH  100%=      5-min Rain = 0
KQU1 221358Z 12004KT 02/02 A2999 RMK A01 T00170017  RH  100%=      5-min Rain = 0
KQU1 221359Z 12004KT 02/02 A2999 RMK A01 T00170017  RH  100%=      5-min Rain = 0
KQU1 221400Z 13005KT 02/02 A2999 RMK A01 T00170017  RH  100%=      5-min Rain = 0
KQU1 221401Z 12007KT 02/02 A2999 RMK A01 T00170017  RH  100%=      5-min Rain = 0
KQU1 221402Z 12008KT 02/02 A2999 RMK A01 T00180017  RH  100%=      5-min Rain = 0
KQU1 221403Z 12007KT 02/02 A2999 RMK A01 T00180017  RH  100%=      5-min Rain = 0
KQU1 221404Z 13008KT 02/02 A2999 RMK A01 T00180017  RH  100%=      5-min Rain = 0
KQU1 221405Z 14008KT 02/02 A2999 RMK A01 T00180018  RH  100%=      5-min Rain = 0
KQU1 221406Z 13006KT 02/02 A2999 RMK A01 T00180017  RH  100%=      5-min Rain = 0
KQU1 221407Z 12006KT 02/02 A2999 RMK A01 T00180017  RH  100%=      5-min Rain = 0
KQU1 221408Z 12006KT 02/02 A2999 RMK A01 T00180018  RH  100%=      5-min Rain = 0
KQU1 221409Z 11005KT 02/02 A2999 RMK A01 T00180018  RH  100%=      5-min Rain = 0
KQU1 221410Z 12006KT 02/02 A2999 RMK A01 T00180018  RH  100%=      5-min Rain = 0
KQU1 221411Z 12006KT 02/02 A2999 RMK A01 T00190018  RH  100%=      5-min Rain = 0
KQU1 221412Z 12007KT 02/02 A2999 RMK A01 T00190018  RH  100%=      5-min Rain = 0
KQU1 221413Z 12006KT 02/02 A2999 RMK A01 T00180018  RH  100%=      5-min Rain = 0
KQU1 221414Z 12005KT 02/02 A2999 RMK A01 T00180018  RH  100%=      5-min Rain = 0
KQU1 221415Z 11006KT 02/02 A2999 RMK A01 T00190018  RH  100%=      5-min Rain = 0
KQU1 221416Z 12006KT 02/02 A2999 RMK A01 T00190018  RH  100%=      5-min Rain = 0
KQU1 221417Z 12007KT 02/02 A2999 RMK A01 T00190018  RH  100%=      5-min Rain = 0
KQU1 221418Z 12005KT 02/02 A2999 RMK A01 T00190019  RH  100%=      5-min Rain = 0
KQU1 221419Z 13005KT 02/02 A2999 RMK A01 T00190019  RH  100%=      5-min Rain = 0
KQU1 221420Z 12004KT 02/02 A2999 RMK A01 T00190019  RH  100%=      5-min Rain = 0
KQU1 221421Z 11005KT 02/02 A2999 RMK A01 T00190019  RH  100%=      5-min Rain = 0
KQU1 221422Z 11005KT 02/02 A2999 RMK A01 T00190019  RH  100%=      5-min Rain = 0
KQU1 221423Z 11005KT 02/02 A2999 RMK A01 T00190019  RH  100%=      5-min Rain = 0
KQU1 221424Z 11005KT 02/02 A2999 RMK A01 T00190019  RH  100%=      5-min Rain = 0
KQU1 221425Z 11005KT 02/02 A2999 RMK A01 T00190019  RH  100%=      5-min Rain = 0
KQU1 221426Z 11005KT 02/02 A30 RMK A01 T00190019  RH  100%=      5-min Rain = 0
KQU1 221427Z 12003KT 02/02 A30 RMK A01 T00190019  RH  100%=      5-min Rain = 0
KQU1 221428Z 12003KT 02/02 A30 RMK A01 T00190018  RH  100%=      5-min Rain = 0
KQU1 221429Z 11003KT 02/02 A30 RMK A01 T00190018  RH  100%=      5-min Rain = 0
KQU1 221430Z 10003KT 02/02 A30 RMK A01 T00190018  RH  100%=      5-min Rain = 0
KQU1 221431Z 10004KT 02/02 A30 RMK A01 T00190019  RH  100%=      5-min Rain = 0
KQU1 221432Z 08004KT 02/02 A2999 RMK A01 T00190019  RH  100%=      5-min Rain = 0
KQU1 221433Z 09005KT 02/02 A2999 RMK A01 T00200019  RH  100%=      5-min Rain = 0
KQU1 221434Z 09004KT 02/02 A2999 RMK A01 T00200019  RH  100%=      5-min Rain = 0
KQU1 221435Z 10004KT 02/02 A2999 RMK A01 T00200020  RH  100%=      5-min Rain = 0
KQU1 221436Z 10004KT 02/02 A2999 RMK A01 T00200020  RH  100%=      5-min Rain = 0
KQU1 221437Z 10004KT 02/02 A2999 RMK A01 T00200020  RH  100%=      5-min Rain = 0
KQU1 221438Z 10004KT 02/02 A2999 RMK A01 T00200019  RH  100%=      5-min Rain = 0
KQU1 221439Z 10005KT 02/02 A2999 RMK A01 T00200019  RH  100%=      5-min Rain = 0
KQU1 221440Z 09004KT 02/02 A2999 RMK A01 T00200019  RH  100%=      5-min Rain = 0
KQU1 221441Z 09005KT 02/02 A2999 RMK A01 T00200020  RH  100%=      5-min Rain = 0
KQU1 221442Z 10004KT 02/02 A2999 RMK A01 T00200020  RH  100%=      5-min Rain = 0
KQU1 221443Z 10004KT 02/02 A2999 RMK A01 T00200020  RH  100%=      5-min Rain = 0
KQU1 221444Z 10005KT 02/02 A2999 RMK A01 T00200020  RH  100%=      5-min Rain = 0
KQU1 221445Z 11004KT 02/02 A2999 RMK A01 T00210020  RH  100%=      5-min Rain = 0
KQU1 221446Z 11004KT 02/02 A2999 RMK A01 T00210020  RH  100%=      5-min Rain = 0
KQU1 221447Z 11004KT 02/02 A2999 RMK A01 T00210021  RH  100%=      5-min Rain = 0
KQU1 221448Z 12005KT 02/02 A2999 RMK A01 T00210021  RH  100%=      5-min Rain = 0
KQU1 221449Z 12006KT 02/02 A2999 RMK A01 T00210021  RH  100%=      5-min Rain = 0
KQU1 221450Z 12006KT 02/02 A30 RMK A01 T00210021  RH  100%=      5-min Rain = 0
KQU1 221451Z 13006KT 02/02 A30 RMK A01 T00210021  RH  100%=      5-min Rain = 0
KQU1 221452Z 13006KT 02/02 A30 RMK A01 T00210020  RH  100%=      5-min Rain = 0
KQU1 221453Z 13007KT 02/02 A30 RMK A01 T00210020  RH  100%=      5-min Rain = 0
KQU1 221454Z 12006KT 02/02 A30 RMK A01 T00210021  RH  100%=      5-min Rain = 0
KQU1 221455Z 11005KT 02/02 A30 RMK A01 T00210021  RH  100%=      5-min Rain = 0
KQU1 221456Z 11005KT 02/02 A30 RMK A01 T00210021  RH  100%=      5-min Rain = 0
KQU1 221457Z 12005KT 02/02 A30 RMK A01 T00220021  RH  100%=      5-min Rain = 0
KQU1 221458Z 12006KT 02/02 A30 RMK A01 T00220021  RH  100%=      5-min Rain = 0
KQU1 221459Z 12005KT 02/02 A30 RMK A01 T00220021  RH  100%=      5-min Rain = 0
KQU1 221500Z 13005KT 02/02 A30 RMK A01 T00220021  RH  100%=      5-min Rain = 0
KQU1 221501Z 13008KT 02/02 A30 RMK A01 T00220022  RH  100%=      5-min Rain = 0
KQU1 221502Z 12007KT 02/02 A30 RMK A01 T00220022  RH  100%=      5-min Rain = 0
KQU1 221503Z 12007KT 02/02 A30 RMK A01 T00220022  RH  100%=      5-min Rain = 0
KQU1 221504Z 12007KT 02/02 A30 RMK A01 T00220021  RH  100%=      5-min Rain = 0
KQU1 221505Z 12007KT 02/02 A30 RMK A01 T00220021  RH  100%=      5-min Rain = 0
KQU1 221506Z 12005KT 02/02 A30 RMK A01 T00220021  RH  100%=      5-min Rain = 0
KQU1 221507Z 12006KT 02/02 A30 RMK A01 T00220021  RH  100%=      5-min Rain = 0
KQU1 221508Z 13006KT 02/02 A30 RMK A01 T00220021  RH  100%=      5-min Rain = 0
KQU1 221509Z 12006KT 02/02 A30 RMK A01 T00220021  RH  100%=      5-min Rain = 0
KQU1 221510Z 12006KT 02/02 A30 RMK A01 T00220021  RH  100%=      5-min Rain = 0
KQU1 221511Z 12005KT 02/02 A2999 RMK A01 T00220021  RH  100%=      5-min Rain = 0
KQU1 221512Z 11005KT 02/02 A2999 RMK A01 T00220022  RH  100%=      5-min Rain = 0
KQU1 221513Z 12005KT 02/02 A2999 RMK A01 T00220022  RH  100%=      5-min Rain = 0
KQU1 221514Z 11004KT 02/02 A2999 RMK A01 T00230022  RH  100%=      5-min Rain = 0
KQU1 221515Z 11004KT 02/02 A2999 RMK A01 T00230023  RH  100%=      5-min Rain = 0
KQU1 221516Z 11005KT 02/02 A2999 RMK A01 T00240023  RH  100%=      5-min Rain = 0
KQU1 221517Z 12005KT 02/02 A2999 RMK A01 T00240023  RH  100%=      5-min Rain = 0
KQU1 221518Z 12005KT 02/02 A2999 RMK A01 T00240023  RH  100%=      5-min Rain = 0
KQU1 221519Z 12006KT 02/02 A2999 RMK A01 T00240023  RH  100%=      5-min Rain = 0
KQU1 221520Z 12005KT 02/02 A30 RMK A01 T00240023  RH  100%=      5-min Rain = 0
KQU1 221521Z 12005KT 02/02 A2999 RMK A01 T00240023  RH  100%=      5-min Rain = 0
KQU1 221522Z 13005KT 02/02 A2999 RMK A01 T00240024  RH  100%=      5-min Rain = 0
KQU1 221523Z 12006KT 03/02 A2999 RMK A01 T00250024  RH  100%=      5-min Rain = 0
KQU1 221524Z 12007KT 03/02 A2999 RMK A01 T00250024  RH  100%=      5-min Rain = 0
KQU1 221525Z 12006KT 03/02 A30 RMK A01 T00250024  RH  100%=      5-min Rain = 0
KQU1 221526Z 12007KT 02/02 A30 RMK A01 T00240024  RH  100%=      5-min Rain = 0
KQU1 221527Z 12008KT 02/02 A30 RMK A01 T00240024  RH  100%=      5-min Rain = 0
KQU1 221528Z 11007KT 02/02 A30 RMK A01 T00240024  RH  100%=      5-min Rain = 0
KQU1 221529Z 12007KT 02/02 A30 RMK A01 T00240023  RH  100%=      5-min Rain = 0
KQU1 221530Z 12007KT 02/02 A30 RMK A01 T00240023  RH  100%=      5-min Rain = 0
KQU1 221531Z 11006KT 02/02 A30 RMK A01 T00240024  RH  100%=      5-min Rain = 0
KQU1 221532Z 11007KT 02/02 A30 RMK A01 T00240024  RH  100%=      5-min Rain = 0
KQU1 221533Z 11007KT 02/02 A30 RMK A01 T00240024  RH  100%=      5-min Rain = 0
KQU1 221534Z 12007KT 02/02 A30 RMK A01 T00240024  RH  100%=      5-min Rain = 0
KQU1 221535Z 12006KT 02/02 A30 RMK A01 T00240024  RH  100%=      5-min Rain = 0
KQU1 221536Z 13007KT 03/02 A30 RMK A01 T00250024  RH  100%=      5-min Rain = 0
KQU1 221537Z 12006KT 03/02 A30 RMK A01 T00250024  RH  100%=      5-min Rain = 0
KQU1 221538Z 12006KT 03/03 A30 RMK A01 T00250025  RH  100%=      5-min Rain = 0
KQU1 221539Z 12005KT 03/03 A30 RMK A01 T00260025  RH  100%=      5-min Rain = 0
KQU1 221540Z 12005KT 03/03 A30 RMK A01 T00260026  RH  100%=      5-min Rain = 0
KQU1 221541Z 11006KT 03/03 A30 RMK A01 T00260026  RH  100%=      5-min Rain = 0
KQU1 221542Z 11005KT 03/03 A30 RMK A01 T00260025  RH  100%=      5-min Rain = 0
KQU1 221543Z 13004KT 03/03 A30 RMK A01 T00260026  RH  100%=      5-min Rain = 0
KQU1 221544Z 13005KT 03/03 A30 RMK A01 T00260026  RH  100%=      5-min Rain = 0
KQU1 221545Z 11004KT 03/03 A30 RMK A01 T00260026  RH  100%=      5-min Rain = 0
KQU1 221546Z 10004KT 03/03 A30 RMK A01 T00260026  RH  100%=      5-min Rain = 0
KQU1 221547Z 11004KT 03/03 A30 RMK A01 T00260025  RH  100%=      5-min Rain = 0
KQU1 221548Z 11005KT 03/03 A30 RMK A01 T00260025  RH  100%=      5-min Rain = 0
KQU1 221549Z 11006KT 03/03 A30 RMK A01 T00260025  RH  100%=      5-min Rain = 0
KQU1 221550Z 11005KT 03/03 A30 RMK A01 T00260025  RH  100%=      5-min Rain = 0
KQU1 221551Z 09005KT 03/03 A30 RMK A01 T00260025  RH  100%=      5-min Rain = 0
KQU1 221552Z 09005KT 03/03 A30 RMK A01 T00270026  RH  100%=      5-min Rain = 0
KQU1 221553Z 09004KT 03/03 A30 RMK A01 T00260026  RH  100%=      5-min Rain = 0
KQU1 221554Z 10004KT 03/03 A30 RMK A01 T00260025  RH  100%=      5-min Rain = 0
KQU1 221555Z 10005KT 03/03 A30 RMK A01 T00260025  RH  100%=      5-min Rain = 0
KQU1 221556Z 11005KT 03/03 A30 RMK A01 T00260026  RH  100%=      5-min Rain = 0
KQU1 221557Z 11006KT 03/03 A30 RMK A01 T00260026  RH  100%=      5-min Rain = 0
KQU1 221558Z 11005KT 03/03 A30 RMK A01 T00260025  RH  100%=      5-min Rain = 0
KQU1 221559Z 12005KT 03/03 A30 RMK A01 T00270026  RH  100%=      5-min Rain = 0
KQU1 221600Z 11004KT 03/03 A30 RMK A01 T00270026  RH  100%=      5-min Rain = 0
KQU1 221601Z 11005KT 03/03 A30 RMK A01 T00270027  RH  100%=      5-min Rain = 0
KQU1 221602Z 11004KT 03/03 A30 RMK A01 T00270026  RH  100%=      5-min Rain = 0
KQU1 221603Z 12003KT 03/03 A30 RMK A01 T00270026  RH  100%=      5-min Rain = 0
KQU1 221604Z 11004KT 03/03 A30 RMK A01 T00270027  RH  100%=      5-min Rain = 0
KQU1 221605Z 12004KT 03/03 A30 RMK A01 T00270027  RH  100%=      5-min Rain = 0
KQU1 221606Z 11003KT 03/03 A30 RMK A01 T00270027  RH  100%=      5-min Rain = 0
KQU1 221607Z 12003KT 03/03 A30 RMK A01 T00270027  RH  100%=      5-min Rain = 0
KQU1 221608Z 12003KT 03/03 A30 RMK A01 T00270026  RH  100%=      5-min Rain = 0
KQU1 221609Z 11004KT 03/03 A30 RMK A01 T00270027  RH  100%=      5-min Rain = 0
KQU1 221610Z 11004KT 03/03 A30 RMK A01 T00270026  RH  100%=      5-min Rain = 0
KQU1 221611Z 10004KT 03/03 A30 RMK A01 T00270026  RH  099%=      5-min Rain = 0
KQU1 221612Z 12005KT 03/03 A30 RMK A01 T00270026  RH  099%=      5-min Rain = 0
KQU1 221613Z 13004KT 03/03 A30 RMK A01 T00270026  RH  100%=      5-min Rain = 0
KQU1 221614Z 13004KT 03/03 A30 RMK A01 T00270026  RH  100%=      5-min Rain = 0
KQU1 221615Z 11004KT 03/03 A30 RMK A01 T00270026  RH  100%=      5-min Rain = 0
KQU1 221616Z 12004KT 03/03 A30 RMK A01 T00270026  RH  100%=      5-min Rain = 0
KQU1 221617Z 11004KT 03/03 A30 RMK A01 T00270027  RH  100%=      5-min Rain = 0
KQU1 221618Z 11004KT 03/03 A30 RMK A01 T00270027  RH  100%=      5-min Rain = 0
KQU1 221619Z 11003KT 03/03 A30 RMK A01 T00270027  RH  100%=      5-min Rain = 0
KQU1 221620Z 12002KT 03/03 A30 RMK A01 T00270026  RH  100%=      5-min Rain = 0
KQU1 221621Z 11003KT 03/03 A30 RMK A01 T00270026  RH  099%=      5-min Rain = 0
KQU1 221622Z 13002KT 03/03 A30 RMK A01 T00270026  RH  099%=      5-min Rain = 0
KQU1 221623Z 13002KT 03/03 A30 RMK A01 T00270026  RH  099%=      5-min Rain = 0
KQU1 221624Z 14002KT 03/03 A30 RMK A01 T00270026  RH  099%=      5-min Rain = 0
KQU1 221625Z 15002KT 03/03 A30 RMK A01 T00270026  RH  099%=      5-min Rain = 0
KQU1 221626Z 14002KT 03/03 A30 RMK A01 T00270027  RH  100%=      5-min Rain = 0
KQU1 221627Z 13002KT 03/03 A30 RMK A01 T00280027  RH  100%=      5-min Rain = 0
KQU1 221628Z 14002KT 03/03 A30 RMK A01 T00280027  RH  100%=      5-min Rain = 0
KQU1 221629Z 14000KT 03/03 A30 RMK A01 T00280028  RH  100%=      5-min Rain = 0
KQU1 221630Z 11002KT 03/03 A30 RMK A01 T00290028  RH  100%=      5-min Rain = 0
KQU1 221631Z 11001KT 03/03 A2999 RMK A01 T00290028  RH  100%=      5-min Rain = 0
KQU1 221632Z 10002KT 03/03 A2999 RMK A01 T00290029  RH  100%=      5-min Rain = 0
KQU1 221633Z 12004KT 03/03 A2999 RMK A01 T00290028  RH  100%=      5-min Rain = 0
KQU1 221634Z 12002KT 03/03 A2999 RMK A01 T00280027  RH  099%=      5-min Rain = 0
KQU1 221635Z 11003KT 03/03 A2999 RMK A01 T00280027  RH  099%=      5-min Rain = 0
KQU1 221636Z 10004KT 03/03 A2999 RMK A01 T00290028  RH  099%=      5-min Rain = 0
KQU1 221637Z 12003KT 03/03 A2999 RMK A01 T00290029  RH  100%=      5-min Rain = 0
KQU1 221638Z 12003KT 03/03 A2999 RMK A01 T00300030  RH  100%=      5-min Rain = 0
KQU1 221639Z 12003KT 03/03 A2999 RMK A01 T00310030  RH  100%=      5-min Rain = 0
KQU1 221640Z 13003KT 03/03 A2999 RMK A01 T00300029  RH  100%=      5-min Rain = 0
KQU1 221641Z 13002KT 03/03 A2999 RMK A01 T00300029  RH  100%=      5-min Rain = 0
KQU1 221642Z 12003KT 03/03 A2999 RMK A01 T00300030  RH  100%=      5-min Rain = 0
KQU1 221643Z 11003KT 03/03 A2999 RMK A01 T00300030  RH  100%=      5-min Rain = 0
KQU1 221644Z 11003KT 03/03 A2999 RMK A01 T00300030  RH  099%=      5-min Rain = 0
KQU1 221645Z 10002KT 03/03 A2999 RMK A01 T00300030  RH  099%=      5-min Rain = 0
KQU1 221646Z 09003KT 03/03 A2999 RMK A01 T00310030  RH  099%=      5-min Rain = 0
KQU1 221647Z 10001KT 03/03 A2999 RMK A01 T00300029  RH  099%=      5-min Rain = 0
KQU1 221648Z 11002KT 03/03 A2999 RMK A01 T00300029  RH  099%=      5-min Rain = 0
KQU1 221649Z 13003KT 03/03 A2999 RMK A01 T00310030  RH  099%=      5-min Rain = 0
KQU1 221650Z 11002KT 03/03 A2999 RMK A01 T00310030  RH  099%=      5-min Rain = 0
KQU1 221651Z 09003KT 03/03 A2999 RMK A01 T00310030  RH  099%=      5-min Rain = 0
KQU1 221652Z 09002KT 03/03 A2999 RMK A01 T00310030  RH  099%=      5-min Rain = 0
KQU1 221653Z 09003KT 03/03 A2999 RMK A01 T00310030  RH  099%=      5-min Rain = 0
KQU1 221654Z 12003KT 03/03 A2999 RMK A01 T00320031  RH  099%=      5-min Rain = 0
KQU1 221655Z 12002KT 03/03 A2999 RMK A01 T00320031  RH  099%=      5-min Rain = 0
KQU1 221656Z 11002KT 03/03 A2999 RMK A01 T00330032  RH  100%=      5-min Rain = 0
KQU1 221657Z 09003KT 03/03 A2999 RMK A01 T00330032  RH  100%=      5-min Rain = 0
KQU1 221658Z 09003KT 03/03 A2999 RMK A01 T00320032  RH  099%=      5-min Rain = 0
KQU1 221659Z 10002KT 03/03 A2999 RMK A01 T00320031  RH  099%=      5-min Rain = 0
KQU1 221700Z 10003KT 03/03 A2999 RMK A01 T00320031  RH  099%=      5-min Rain = 0
KQU1 221701Z 08002KT 03/03 A2999 RMK A01 T00310030  RH  099%=      5-min Rain = 0
KQU1 221702Z 07002KT 03/03 A2999 RMK A01 T00310030  RH  099%=      5-min Rain = 0
KQU1 221703Z 07003KT 03/03 A2999 RMK A01 T00310030  RH  099%=      5-min Rain = 0
KQU1 221704Z 06003KT 03/03 A2999 RMK A01 T00310030  RH  099%=      5-min Rain = 0
KQU1 221705Z 07001KT 03/03 A2999 RMK A01 T00310029  RH  099%=      5-min Rain = 0
KQU1 221706Z 03001KT 03/03 A2999 RMK A01 T00310030  RH  099%=      5-min Rain = 0
KQU1 221707Z 04001KT 03/03 A2999 RMK A01 T00310030  RH  099%=      5-min Rain = 0
KQU1 221708Z 00001KT 03/03 A2999 RMK A01 T00310030  RH  099%=      5-min Rain = 0
KQU1 221709Z 05000KT 03/03 A2999 RMK A01 T00310030  RH  099%=      5-min Rain = 0
KQU1 221710Z 02000KT 03/03 A2999 RMK A01 T00310030  RH  099%=      5-min Rain = 0
KQU1 221711Z 02001KT 03/03 A2999 RMK A01 T00310030  RH  099%=      5-min Rain = 0
KQU1 221712Z 00002KT 03/03 A2999 RMK A01 T00320030  RH  099%=      5-min Rain = 0
KQU1 221713Z 00001KT 03/03 A2999 RMK A01 T00310030  RH  099%=      5-min Rain = 0
KQU1 221714Z 00001KT 03/03 A2998 RMK A01 T00310030  RH  099%=      5-min Rain = 0
KQU1 221715Z 01002KT 03/03 A2998 RMK A01 T00320030  RH  099%=      5-min Rain = 0
KQU1 221716Z 36002KT 03/03 A2998 RMK A01 T00320030  RH  099%=      5-min Rain = 0
KQU1 221717Z 34002KT 03/03 A2998 RMK A01 T00320030  RH  099%=      5-min Rain = 0
KQU1 221718Z 33002KT 03/03 A2998 RMK A01 T00320031  RH  099%=      5-min Rain = 0
KQU1 221719Z 33002KT 03/03 A2998 RMK A01 T00320031  RH  099%=      5-min Rain = 0
KQU1 221720Z 33002KT 03/03 A2998 RMK A01 T00330032  RH  099%=      5-min Rain = 0
KQU1 221721Z 35002KT 03/03 A2998 RMK A01 T00330032  RH  099%=      5-min Rain = 0
KQU1 221722Z 00002KT 03/03 A2998 RMK A01 T00330032  RH  099%=      5-min Rain = 0
KQU1 221723Z 00002KT 03/03 A2998 RMK A01 T00330032  RH  099%=      5-min Rain = 0
KQU1 221724Z 01001KT 03/03 A2998 RMK A01 T00330032  RH  099%=      5-min Rain = 0
KQU1 221725Z 02000KT 03/03 A2998 RMK A01 T00330032  RH  099%=      5-min Rain = 0
KQU1 221726Z 36001KT 03/03 A2998 RMK A01 T00330032  RH  099%=      5-min Rain = 0
KQU1 221727Z 34001KT 03/03 A2998 RMK A01 T00340033  RH  099%=      5-min Rain = 0
KQU1 221728Z 33001KT 04/03 A2998 RMK A01 T00350034  RH  099%=      5-min Rain = 0
KQU1 221729Z 32002KT 04/03 A2998 RMK A01 T00350034  RH  099%=      5-min Rain = 0
KQU1 221730Z 31001KT 04/03 A2998 RMK A01 T00350033  RH  099%=      5-min Rain = 0
KQU1 221731Z 29001KT 03/03 A2998 RMK A01 T00340033  RH  099%=      5-min Rain = 0
KQU1 221732Z 27002KT 04/03 A2998 RMK A01 T00350033  RH  099%=      5-min Rain = 0
KQU1 221733Z 27002KT 04/04 A2998 RMK A01 T00360035  RH  099%=      5-min Rain = 0
KQU1 221734Z 26001KT 04/04 A2998 RMK A01 T00360035  RH  099%=      5-min Rain = 0
KQU1 221735Z 30001KT 04/04 A2998 RMK A01 T00360035  RH  099%=      5-min Rain = 0
KQU1 221736Z 29001KT 04/04 A2998 RMK A01 T00360035  RH  099%=      5-min Rain = 0
KQU1 221737Z 26002KT 04/04 A2998 RMK A01 T00360035  RH  099%=      5-min Rain = 0
KQU1 221738Z 26002KT 04/04 A2998 RMK A01 T00370035  RH  099%=      5-min Rain = 0
KQU1 221739Z 27001KT 04/04 A2998 RMK A01 T00360035  RH  099%=      5-min Rain = 0
KQU1 221740Z 27001KT 04/04 A2998 RMK A01 T00360035  RH  099%=      5-min Rain = 0
KQU1 221741Z 27000KT 04/04 A2998 RMK A01 T00370036  RH  099%=      5-min Rain = 0
KQU1 221742Z 00000KT 04/04 A2998 RMK A01 T00370036  RH  099%=      5-min Rain = 0
KQU1 221743Z 00000KT 04/04 A2998 RMK A01 T00380037  RH  099%=      5-min Rain = 0
KQU1 221744Z 00000KT 04/04 A2998 RMK A01 T00390038  RH  099%=      5-min Rain = 0
KQU1 221745Z 00000KT 04/04 A2998 RMK A01 T00400039  RH  099%=      5-min Rain = 0
KQU1 221746Z 00000KT 04/04 A2998 RMK A01 T00410040  RH  099%=      5-min Rain = 0
KQU1 221747Z 00000KT 04/04 A2998 RMK A01 T00410040  RH  099%=      5-min Rain = 0
KQU1 221748Z 12001KT 04/04 A2998 RMK A01 T00420040  RH  099%=      5-min Rain = 0
KQU1 221749Z 12001KT 04/04 A2998 RMK A01 T00420041  RH  099%=      5-min Rain = 0
KQU1 221750Z 12001KT 04/04 A2997 RMK A01 T00420041  RH  099%=      5-min Rain = 0
KQU1 221751Z 09000KT 04/04 A2997 RMK A01 T00430042  RH  099%=      5-min Rain = 0
KQU1 221752Z 09001KT 04/04 A2997 RMK A01 T00430042  RH  099%=      5-min Rain = 0
KQU1 221753Z 07001KT 04/04 A2997 RMK A01 T00430042  RH  099%=      5-min Rain = 0
KQU1 221754Z 06001KT 04/04 A2997 RMK A01 T00430042  RH  099%=      5-min Rain = 0
KQU1 221755Z 06000KT 04/04 A2997 RMK A01 T00430042  RH  099%=      5-min Rain = 0
KQU1 221756Z 03001KT 04/04 A2997 RMK A01 T00430042  RH  099%=      5-min Rain = 0
KQU1 221757Z 02002KT 04/04 A2997 RMK A01 T00420040  RH  098%=      5-min Rain = 0
KQU1 221758Z 02002KT 04/04 A2997 RMK A01 T00410038  RH  098%=      5-min Rain = 0
KQU1 221759Z 01003KT 04/04 A2997 RMK A01 T00400038  RH  098%=      5-min Rain = 0
KQU1 221800Z 01002KT 04/04 A2997 RMK A01 T00400037  RH  098%=      5-min Rain = 0
KQU1 221801Z 36002KT 04/04 A2997 RMK A01 T00390037  RH  098%=      5-min Rain = 0
KQU1 221802Z 01002KT 04/04 A2997 RMK A01 T00390037  RH  098%=      5-min Rain = 0
KQU1 221803Z 02002KT 04/04 A2997 RMK A01 T00400037  RH  098%=      5-min Rain = 0
KQU1 221804Z 03001KT 04/04 A2996 RMK A01 T00390037  RH  098%=      5-min Rain = 0
KQU1 221805Z 04002KT 04/04 A2996 RMK A01 T00390037  RH  098%=      5-min Rain = 0
KQU1 221806Z 02002KT 04/04 A2996 RMK A01 T00390037  RH  099%=      5-min Rain = 0
KQU1 221807Z 01002KT 04/04 A2996 RMK A01 T00400038  RH  099%=      5-min Rain = 0
KQU1 221808Z 07001KT 04/04 A2996 RMK A01 T00410039  RH  099%=      5-min Rain = 0
KQU1 221809Z 11003KT 04/04 A2996 RMK A01 T00420040  RH  099%=      5-min Rain = 0
KQU1 221810Z 10003KT 04/04 A2996 RMK A01 T00420041  RH  099%=      5-min Rain = 0
KQU1 221811Z 10003KT 04/04 A2996 RMK A01 T00430042  RH  099%=      5-min Rain = 0
KQU1 221812Z 11004KT 04/04 A2996 RMK A01 T00430042  RH  099%=      5-min Rain = 0
KQU1 221813Z 12005KT 04/04 A2996 RMK A01 T00440042  RH  099%=      5-min Rain = 0
KQU1 221814Z 12005KT 04/04 A2996 RMK A01 T00440042  RH  099%=      5-min Rain = 0
KQU1 221815Z 11004KT 04/04 A2996 RMK A01 T00430041  RH  099%=      5-min Rain = 0
KQU1 221816Z 11004KT 04/04 A2996 RMK A01 T00430041  RH  099%=      5-min Rain = 0
KQU1 221817Z 12004KT 04/04 A2996 RMK A01 T00430041  RH  099%=      5-min Rain = 0
KQU1 221818Z 13004KT 04/04 A2996 RMK A01 T00440042  RH  099%=      5-min Rain = 0
KQU1 221819Z 13003KT 04/04 A2996 RMK A01 T00440042  RH  099%=      5-min Rain = 0
KQU1 221820Z 13004KT 04/04 A2996 RMK A01 T00440042  RH  099%=      5-min Rain = 0
KQU1 221821Z 13003KT 04/04 A2996 RMK A01 T00440042  RH  099%=      5-min Rain = 0
KQU1 221822Z 11005KT 04/04 A2996 RMK A01 T00440042  RH  099%=      5-min Rain = 0
KQU1 221823Z 11005KT 05/04 A2996 RMK A01 T00450043  RH  099%=      5-min Rain = 0
KQU1 221824Z 12005KT 05/04 A2996 RMK A01 T00450044  RH  099%=      5-min Rain = 0
KQU1 221825Z 09005KT 05/04 A2996 RMK A01 T00460044  RH  099%=      5-min Rain = 0
KQU1 221826Z 09004KT 05/04 A2995 RMK A01 T00460044  RH  099%=      5-min Rain = 0
KQU1 221827Z 10005KT 05/05 A2995 RMK A01 T00470045  RH  099%=      5-min Rain = 0
KQU1 221828Z 10005KT 05/04 A2995 RMK A01 T00460044  RH  098%=      5-min Rain = 0
KQU1 221829Z 09005KT 05/04 A2995 RMK A01 T00460043  RH  098%=      5-min Rain = 0
KQU1 221830Z 10004KT 05/04 A2995 RMK A01 T00450042  RH  098%=      5-min Rain = 0
KQU1 221831Z 11004KT 05/04 A2995 RMK A01 T00450042  RH  098%=      5-min Rain = 0
KQU1 221832Z 11005KT 05/04 A2995 RMK A01 T00450042  RH  098%=      5-min Rain = 0
KQU1 221833Z 11005KT 04/04 A2995 RMK A01 T00440042  RH  098%=      5-min Rain = 0
KQU1 221834Z 10003KT 04/04 A2995 RMK A01 T00440041  RH  098%=      5-min Rain = 0
KQU1 221835Z 09003KT 04/04 A2995 RMK A01 T00440041  RH  098%=      5-min Rain = 0
KQU1 221836Z 11004KT 04/04 A2995 RMK A01 T00440042  RH  098%=      5-min Rain = 0
KQU1 221837Z 13003KT 05/04 A2995 RMK A01 T00450043  RH  099%=      5-min Rain = 0
KQU1 221838Z 13003KT 05/04 A2995 RMK A01 T00460044  RH  099%=      5-min Rain = 0
KQU1 221839Z 14002KT 05/04 A2995 RMK A01 T00460044  RH  098%=      5-min Rain = 0
KQU1 221840Z 15002KT 05/04 A2995 RMK A01 T00460044  RH  098%=      5-min Rain = 0
KQU1 221841Z 15003KT 05/04 A2995 RMK A01 T00460044  RH  098%=      5-min Rain = 0
KQU1 221842Z 15004KT 05/04 A2995 RMK A01 T00460044  RH  098%=      5-min Rain = 0
KQU1 221843Z 13005KT 05/05 A2995 RMK A01 T00470045  RH  099%=      5-min Rain = 0
KQU1 221844Z 13005KT 05/05 A2994 RMK A01 T00470045  RH  098%=      5-min Rain = 0
KQU1 221845Z 13004KT 05/05 A2994 RMK A01 T00480045  RH  098%=      5-min Rain = 0
KQU1 221846Z 11004KT 05/05 A2994 RMK A01 T00480046  RH  098%=      5-min Rain = 0
KQU1 221847Z 11003KT 05/05 A2994 RMK A01 T00480045  RH  098%=      5-min Rain = 0
KQU1 221848Z 12003KT 05/05 A2994 RMK A01 T00480046  RH  098%=      5-min Rain = 0
KQU1 221849Z 13004KT 05/05 A2994 RMK A01 T00490047  RH  099%=      5-min Rain = 0
KQU1 221850Z 14004KT 05/05 A2994 RMK A01 T00500048  RH  099%=      5-min Rain = 0
KQU1 221851Z 15004KT 05/05 A2994 RMK A01 T00510049  RH  099%=      5-min Rain = 0
KQU1 221852Z 14005KT 05/05 A2994 RMK A01 T00510048  RH  098%=      5-min Rain = 0
KQU1 221853Z 13005KT 05/05 A2994 RMK A01 T00510048  RH  098%=      5-min Rain = 0
KQU1 221854Z 13005KT 05/05 A2994 RMK A01 T00510048  RH  098%=      5-min Rain = 0
KQU1 221855Z 13005KT 05/05 A2993 RMK A01 T00510048  RH  098%=      5-min Rain = 0
KQU1 221856Z 14004KT 05/05 A2993 RMK A01 T00500047  RH  098%=      5-min Rain = 0
KQU1 221857Z 12005KT 05/05 A2993 RMK A01 T00500047  RH  098%=      5-min Rain = 0
KQU1 221858Z 11004KT 05/05 A2993 RMK A01 T00500046  RH  098%=      5-min Rain = 0
KQU1 221859Z 12004KT 05/05 A2993 RMK A01 T00490046  RH  098%=      5-min Rain = 0
KQU1 221900Z 13004KT 05/05 A2993 RMK A01 T00490046  RH  098%=      5-min Rain = 0
KQU1 221901Z 15004KT 05/05 A2993 RMK A01 T00500047  RH  098%=      5-min Rain = 0
KQU1 221902Z 14005KT 05/05 A2993 RMK A01 T00500047  RH  098%=      5-min Rain = 0
KQU1 221903Z 13004KT 05/05 A2993 RMK A01 T00500047  RH  098%=      5-min Rain = 0
KQU1 221904Z 13005KT 05/05 A2993 RMK A01 T00510048  RH  098%=      5-min Rain = 0
KQU1 221905Z 11005KT 05/05 A2993 RMK A01 T00510048  RH  098%=      5-min Rain = 0
KQU1 221906Z 11006KT 05/05 A2993 RMK A01 T00500047  RH  098%=      5-min Rain = 0
KQU1 221907Z 10005KT 05/05 A2993 RMK A01 T00490045  RH  097%=      5-min Rain = 0
KQU1 221908Z 09004KT 05/05 A2993 RMK A01 T00490045  RH  097%=      5-min Rain = 0
KQU1 221909Z 10003KT 05/05 A2993 RMK A01 T00490046  RH  098%=      5-min Rain = 0
KQU1 221910Z 10005KT 05/05 A2993 RMK A01 T00500047  RH  098%=      5-min Rain = 0
KQU1 221911Z 11005KT 05/05 A2993 RMK A01 T00500047  RH  098%=      5-min Rain = 0
KQU1 221912Z 12005KT 05/05 A2992 RMK A01 T00510049  RH  098%=      5-min Rain = 0
KQU1 221913Z 12005KT 05/05 A2992 RMK A01 T00520049  RH  098%=      5-min Rain = 0
KQU1 221914Z 10005KT 05/05 A2992 RMK A01 T00510048  RH  098%=      5-min Rain = 0
KQU1 221915Z 09004KT 05/05 A2992 RMK A01 T00500046  RH  097%=      5-min Rain = 0
KQU1 221916Z 09004KT 05/05 A2992 RMK A01 T00490045  RH  097%=      5-min Rain = 0
KQU1 221917Z 07005KT 05/05 A2992 RMK A01 T00490046  RH  098%=      5-min Rain = 0
KQU1 221918Z 07004KT 05/04 A2992 RMK A01 T00490044  RH  097%=      5-min Rain = 0
KQU1 221919Z 08004KT 05/04 A2992 RMK A01 T00480044  RH  097%=      5-min Rain = 0
KQU1 221920Z 09003KT 05/04 A2992 RMK A01 T00480044  RH  097%=      5-min Rain = 0
KQU1 221921Z 08003KT 05/04 A2992 RMK A01 T00480044  RH  098%=      5-min Rain = 0
KQU1 221922Z 09004KT 05/05 A2991 RMK A01 T00480045  RH  098%=      5-min Rain = 0
KQU1 221923Z 09004KT 05/05 A2991 RMK A01 T00490046  RH  098%=      5-min Rain = 0
KQU1 221924Z 08003KT 05/05 A2991 RMK A01 T00490046  RH  098%=      5-min Rain = 0
KQU1 221925Z 10005KT 05/05 A2991 RMK A01 T00510048  RH  098%=      5-min Rain = 0
KQU1 221926Z 08004KT 05/05 A2991 RMK A01 T00520049  RH  098%=      5-min Rain = 0
KQU1 221927Z 08005KT 05/05 A2991 RMK A01 T00520049  RH  098%=      5-min Rain = 0
KQU1 221928Z 08004KT 05/05 A2991 RMK A01 T00510047  RH  097%=      5-min Rain = 0
KQU1 221929Z 08005KT 05/05 A2991 RMK A01 T00500046  RH  097%=      5-min Rain = 0
KQU1 221930Z 11003KT 05/05 A2991 RMK A01 T00500046  RH  098%=      5-min Rain = 0
KQU1 221931Z 11005KT 05/05 A2991 RMK A01 T00500047  RH  098%=      5-min Rain = 0
KQU1 221932Z 10005KT 05/05 A2991 RMK A01 T00500046  RH  097%=      5-min Rain = 0
KQU1 221933Z 12004KT 05/05 A2991 RMK A01 T00490046  RH  097%=      5-min Rain = 0
KQU1 221934Z 11003KT 05/05 A2991 RMK A01 T00500047  RH  098%=      5-min Rain = 0
KQU1 221935Z 10002KT 05/05 A2991 RMK A01 T00500047  RH  098%=      5-min Rain = 0
KQU1 221936Z 12005KT 05/05 A2991 RMK A01 T00500047  RH  098%=      5-min Rain = 0
KQU1 221937Z 11004KT 05/05 A2991 RMK A01 T00510047  RH  098%=      5-min Rain = 0
KQU1 221938Z 12004KT 05/05 A2991 RMK A01 T00500047  RH  098%=      5-min Rain = 0
KQU1 221939Z 12005KT 05/05 A2991 RMK A01 T00500047  RH  098%=      5-min Rain = 0
KQU1 221940Z 12004KT 05/05 A2991 RMK A01 T00500046  RH  098%=      5-min Rain = 0
KQU1 221941Z 11004KT 05/05 A2991 RMK A01 T00500047  RH  098%=      5-min Rain = 0
KQU1 221942Z 11003KT 05/05 A2991 RMK A01 T00500047  RH  098%=      5-min Rain = 0
KQU1 221943Z 11003KT 05/05 A2991 RMK A01 T00500047  RH  098%=      5-min Rain = 0
KQU1 221944Z 12004KT 05/05 A2991 RMK A01 T00510048  RH  098%=      5-min Rain = 0
KQU1 221945Z 12005KT 05/05 A2991 RMK A01 T00520049  RH  098%=      5-min Rain = 0
KQU1 221946Z 11005KT 05/05 A2991 RMK A01 T00520049  RH  098%=      5-min Rain = 0
KQU1 221947Z 11005KT 05/05 A2991 RMK A01 T00520048  RH  098%=      5-min Rain = 0
KQU1 221948Z 10004KT 05/05 A2991 RMK A01 T00510047  RH  097%=      5-min Rain = 0
KQU1 221949Z 12003KT 05/05 A2991 RMK A01 T00510047  RH  097%=      5-min Rain = 0
KQU1 221950Z 12004KT 05/05 A2991 RMK A01 T00510048  RH  098%=      5-min Rain = 0
KQU1 221951Z 12002KT 05/05 A299 RMK A01 T00510047  RH  098%=      5-min Rain = 0
KQU1 221952Z 12002KT 05/05 A299 RMK A01 T00510048  RH  098%=      5-min Rain = 0
KQU1 221953Z 10002KT 05/05 A299 RMK A01 T00510048  RH  098%=      5-min Rain = 0
KQU1 221954Z 12003KT 05/05 A299 RMK A01 T00520048  RH  098%=      5-min Rain = 0
KQU1 221955Z 12003KT 05/05 A299 RMK A01 T00510048  RH  098%=      5-min Rain = 0
KQU1 221956Z 11006KT 05/05 A299 RMK A01 T00510048  RH  098%=      5-min Rain = 0
KQU1 221957Z 12005KT 05/05 A299 RMK A01 T00510047  RH  097%=      5-min Rain = 0
KQU1 221958Z 12005KT 05/05 A299 RMK A01 T00520048  RH  098%=      5-min Rain = 0
KQU1 221959Z 11004KT 05/05 A299 RMK A01 T00520048  RH  098%=      5-min Rain = 0
KQU1 222000Z 13006KT 05/05 A299 RMK A01 T00520048  RH  098%=      5-min Rain = 0
KQU1 222001Z 12005KT 05/05 A299 RMK A01 T00520048  RH  097%=      5-min Rain = 0
KQU1 222002Z 12004KT 05/05 A299 RMK A01 T00510047  RH  097%=      5-min Rain = 0
KQU1 222003Z 12004KT 05/05 A2989 RMK A01 T00510047  RH  097%=      5-min Rain = 0
KQU1 222004Z 12003KT 05/05 A2989 RMK A01 T00510047  RH  097%=      5-min Rain = 0
KQU1 222005Z 11005KT 05/05 A2989 RMK A01 T00510047  RH  097%=      5-min Rain = 0
KQU1 222006Z 11005KT 05/05 A2989 RMK A01 T00510048  RH  097%=      5-min Rain = 0
KQU1 222007Z 12004KT 05/05 A2989 RMK A01 T00510047  RH  097%=      5-min Rain = 0
KQU1 222008Z 10004KT 05/05 A2989 RMK A01 T00510047  RH  097%=      5-min Rain = 0
KQU1 222009Z 12004KT 05/05 A2989 RMK A01 T00510047  RH  097%=      5-min Rain = 0
KQU1 222010Z 12004KT 05/05 A2989 RMK A01 T00510047  RH  097%=      5-min Rain = 0
KQU1 222011Z 12004KT 05/05 A2988 RMK A01 T00520048  RH  098%=      5-min Rain = 0
KQU1 222012Z 11004KT 05/05 A2988 RMK A01 T00520049  RH  098%=      5-min Rain = 0
KQU1 222013Z 12004KT 05/05 A2988 RMK A01 T00530049  RH  098%=      5-min Rain = 0
KQU1 222014Z 13005KT 05/05 A2988 RMK A01 T00530050  RH  098%=      5-min Rain = 0
KQU1 222015Z 13005KT 05/05 A2988 RMK A01 T00530050  RH  098%=      5-min Rain = 0
KQU1 222016Z 12005KT 05/05 A2988 RMK A01 T00530049  RH  097%=      5-min Rain = 0
KQU1 222017Z 13005KT 05/05 A2988 RMK A01 T00540050  RH  097%=      5-min Rain = 0
KQU1 222018Z 12004KT 05/05 A2988 RMK A01 T00540050  RH  097%=      5-min Rain = 0
KQU1 222019Z 13006KT 06/05 A2988 RMK A01 T00550051  RH  098%=      5-min Rain = 0
KQU1 222020Z 12005KT 06/05 A2988 RMK A01 T00550052  RH  098%=      5-min Rain = 0
KQU1 222021Z 12006KT 06/05 A2988 RMK A01 T00560052  RH  097%=      5-min Rain = 0
KQU1 222022Z 12007KT 06/05 A2988 RMK A01 T00560051  RH  097%=      5-min Rain = 0
KQU1 222023Z 14007KT 06/05 A2988 RMK A01 T00560052  RH  097%=      5-min Rain = 0
KQU1 222024Z 15007KT 06/05 A2988 RMK A01 T00560052  RH  097%=      5-min Rain = 0
KQU1 222025Z 15006KT 06/05 A2988 RMK A01 T00560052  RH  097%=      5-min Rain = 0
KQU1 222026Z 15005KT 06/05 A2988 RMK A01 T00560051  RH  097%=      5-min Rain = 0
KQU1 222027Z 14004KT 06/05 A2988 RMK A01 T00550050  RH  097%=      5-min Rain = 0
KQU1 222028Z 14005KT 06/05 A2988 RMK A01 T00550051  RH  097%=      5-min Rain = 0
KQU1 222029Z 13005KT 06/05 A2988 RMK A01 T00560052  RH  097%=      5-min Rain = 0
KQU1 222030Z 10005KT 06/05 A2989 RMK A01 T00560052  RH  097%=      5-min Rain = 0
KQU1 222031Z 11006KT 06/05 A2988 RMK A01 T00560051  RH  097%=      5-min Rain = 0
KQU1 222032Z 11006KT 06/05 A2988 RMK A01 T00560051  RH  097%=      5-min Rain = 0
KQU1 222033Z 12006KT 06/05 A2988 RMK A01 T00560050  RH  097%=      5-min Rain = 0
KQU1 222034Z 10005KT 06/05 A2988 RMK A01 T00550050  RH  097%=      5-min Rain = 0
KQU1 222035Z 11007KT 06/05 A2988 RMK A01 T00550050  RH  096%=      5-min Rain = 0
KQU1 222036Z 11007KT 06/05 A2988 RMK A01 T00550050  RH  097%=      5-min Rain = 0
KQU1 222037Z 11006KT 05/05 A2988 RMK A01 T00540049  RH  096%=      5-min Rain = 0
KQU1 222038Z 10005KT 05/05 A2988 RMK A01 T00540048  RH  096%=      5-min Rain = 0
KQU1 222039Z 10005KT 05/05 A2988 RMK A01 T00540049  RH  097%=      5-min Rain = 0
KQU1 222040Z 10005KT 05/05 A2988 RMK A01 T00540050  RH  097%=      5-min Rain = 0
KQU1 222041Z 11005KT 05/05 A2988 RMK A01 T00540049  RH  097%=      5-min Rain = 0
KQU1 222042Z 11004KT 05/05 A2988 RMK A01 T00540049  RH  097%=      5-min Rain = 0
KQU1 222043Z 10006KT 05/05 A2988 RMK A01 T00540049  RH  097%=      5-min Rain = 0
KQU1 222044Z 11007KT 05/05 A2988 RMK A01 T00540049  RH  097%=      5-min Rain = 0
KQU1 222045Z 10007KT 05/05 A2988 RMK A01 T00530048  RH  096%=      5-min Rain = 0
KQU1 222046Z 10005KT 05/05 A2988 RMK A01 T00530047  RH  096%=      5-min Rain = 0
KQU1 222047Z 11007KT 05/05 A2988 RMK A01 T00530048  RH  097%=      5-min Rain = 0
KQU1 222048Z 10006KT 05/05 A2988 RMK A01 T00530048  RH  097%=      5-min Rain = 0
KQU1 222049Z 11008KT 05/05 A2988 RMK A01 T00530049  RH  097%=      5-min Rain = 0
KQU1 222050Z 11007KT 05/05 A2988 RMK A01 T00530048  RH  097%=      5-min Rain = 0
KQU1 222051Z 11006KT 05/05 A2988 RMK A01 T00530048  RH  097%=      5-min Rain = 0
KQU1 222052Z 11006KT 05/05 A2988 RMK A01 T00540049  RH  097%=      5-min Rain = 0
KQU1 222053Z 09005KT 05/05 A2988 RMK A01 T00530048  RH  097%=      5-min Rain = 0
KQU1 222054Z 09006KT 05/05 A2988 RMK A01 T00530049  RH  097%=      5-min Rain = 0
KQU1 222055Z 09007KT 05/05 A2988 RMK A01 T00540049  RH  097%=      5-min Rain = 0
KQU1 222056Z 09006KT 05/05 A2988 RMK A01 T00540048  RH  097%=      5-min Rain = 0
KQU1 222057Z 09006KT 05/05 A2988 RMK A01 T00540049  RH  097%=      5-min Rain = 0
KQU1 222058Z 10007KT 05/05 A2988 RMK A01 T00540049  RH  097%=      5-min Rain = 0
KQU1 222059Z 09006KT 05/05 A2988 RMK A01 T00540050  RH  097%=      5-min Rain = 0
KQU1 222100Z 09006KT 06/05 A2988 RMK A01 T00550050  RH  097%=      5-min Rain = 0
KQU1 222101Z 08006KT 05/05 A2987 RMK A01 T00540049  RH  096%=      5-min Rain = 0
KQU1 222102Z 10005KT 06/05 A2987 RMK A01 T00550050  RH  097%=      5-min Rain = 0
KQU1 222103Z 12006KT 06/05 A2988 RMK A01 T00550050  RH  097%=      5-min Rain = 0
KQU1 222104Z 12006KT 06/05 A2988 RMK A01 T00550050  RH  097%=      5-min Rain = 0
KQU1 222105Z 12004KT 06/05 A2988 RMK A01 T00550050  RH  097%=      5-min Rain = 0
KQU1 222106Z 11006KT 06/05 A2988 RMK A01 T00550051  RH  097%=      5-min Rain = 0
KQU1 222107Z 11005KT 06/05 A2988 RMK A01 T00550050  RH  096%=      5-min Rain = 0
KQU1 222108Z 11006KT 06/05 A2988 RMK A01 T00550050  RH  096%=      5-min Rain = 0
KQU1 222109Z 11006KT 06/05 A2988 RMK A01 T00550050  RH  096%=      5-min Rain = 0
KQU1 222110Z 11006KT 06/05 A2988 RMK A01 T00550050  RH  096%=      5-min Rain = 0
KQU1 222111Z 11005KT 06/05 A2988 RMK A01 T00560050  RH  096%=      5-min Rain = 0
KQU1 222112Z 12005KT 06/05 A2988 RMK A01 T00560051  RH  097%=      5-min Rain = 0
KQU1 222113Z 13006KT 06/05 A2988 RMK A01 T00570051  RH  096%=      5-min Rain = 0
KQU1 222114Z 12005KT 06/05 A2988 RMK A01 T00570052  RH  097%=      5-min Rain = 0
KQU1 222115Z 11007KT 06/05 A2988 RMK A01 T00570052  RH  096%=      5-min Rain = 0
KQU1 222116Z 11007KT 06/05 A2988 RMK A01 T00570052  RH  096%=      5-min Rain = 0
KQU1 222117Z 11007KT 06/05 A2988 RMK A01 T00570051  RH  096%=      5-min Rain = 0
KQU1 222118Z 11007KT 06/05 A2988 RMK A01 T00570051  RH  096%=      5-min Rain = 0
KQU1 222119Z 11006KT 06/05 A2988 RMK A01 T00570051  RH  096%=      5-min Rain = 0
KQU1 222120Z 11006KT 06/05 A2988 RMK A01 T00570051  RH  096%=      5-min Rain = 0
KQU1 222121Z 11007KT 06/05 A2988 RMK A01 T00580052  RH  096%=      5-min Rain = 0
KQU1 222122Z 11008KT 06/05 A2988 RMK A01 T00580052  RH  096%=      5-min Rain = 0
KQU1 222123Z 11008KT 06/05 A2987 RMK A01 T00580052  RH  096%=      5-min Rain = 0
KQU1 222124Z 11007KT 06/05 A2987 RMK A01 T00590053  RH  096%=      5-min Rain = 0
KQU1 222125Z 11008KT 06/05 A2987 RMK A01 T00590053  RH  096%=      5-min Rain = 0
KQU1 222126Z 12007KT 06/05 A2987 RMK A01 T00600053  RH  096%=      5-min Rain = 0
KQU1 222127Z 12008KT 06/05 A2987 RMK A01 T00600054  RH  096%=      5-min Rain = 0
KQU1 222128Z 11008KT 06/05 A2987 RMK A01 T00610054  RH  095%=      5-min Rain = 0
KQU1 222129Z 12008KT 06/05 A2987 RMK A01 T00610053  RH  095%=      5-min Rain = 0
KQU1 222130Z 11008KT 06/05 A2987 RMK A01 T00600053  RH  095%=      5-min Rain = 0
KQU1 222131Z 11008KT 06/05 A2987 RMK A01 T00600052  RH  095%=      5-min Rain = 0
KQU1 222132Z 13009KT 06/05 A2987 RMK A01 T00610053  RH  095%=      5-min Rain = 0
KQU1 222133Z 12010KT 06/05 A2987 RMK A01 T00610053  RH  095%=      5-min Rain = 0
KQU1 222134Z 12010KT 06/05 A2987 RMK A01 T00610053  RH  094%=      5-min Rain = 0
KQU1 222135Z 12009KT 06/05 A2987 RMK A01 T00610053  RH  094%=      5-min Rain = 0
KQU1 222136Z 11009KT 06/05 A2987 RMK A01 T00620053  RH  094%=      5-min Rain = 0
KQU1 222137Z 11008KT 06/05 A2987 RMK A01 T00620053  RH  094%=      5-min Rain = 0
KQU1 222138Z 12008KT 06/05 A2987 RMK A01 T00620053  RH  094%=      5-min Rain = 0
KQU1 222139Z 12009KT 06/05 A2987 RMK A01 T00620054  RH  094%=      5-min Rain = 0
KQU1 222140Z 12009KT 06/05 A2987 RMK A01 T00620053  RH  094%=      5-min Rain = 0
KQU1 222141Z 13007KT 06/05 A2986 RMK A01 T00620054  RH  094%=      5-min Rain = 0
KQU1 222142Z 12009KT 06/05 A2986 RMK A01 T00630054  RH  094%=      5-min Rain = 0
KQU1 222143Z 12010KT 06/05 A2986 RMK A01 T00630054  RH  094%=      5-min Rain = 0
KQU1 222144Z 12009KT 06/05 A2987 RMK A01 T00630053  RH  093%=      5-min Rain = 0
KQU1 222145Z 12010KT 06/05 A2987 RMK A01 T00630052  RH  093%=      5-min Rain = 0
KQU1 222146Z 13009KT 06/05 A2987 RMK A01 T00620052  RH  093%=      5-min Rain = 0
KQU1 222147Z 13008KT 06/05 A2987 RMK A01 T00620052  RH  093%=      5-min Rain = 0
KQU1 222148Z 12009KT 06/05 A2987 RMK A01 T00620052  RH  093%=      5-min Rain = 0
KQU1 222149Z 11007KT 06/05 A2987 RMK A01 T00620052  RH  093%=      5-min Rain = 0
KQU1 222150Z 12008KT 06/05 A2987 RMK A01 T00630052  RH  093%=      5-min Rain = 0
KQU1 222151Z 13008KT 06/05 A2987 RMK A01 T00630052  RH  093%=      5-min Rain = 0
KQU1 222152Z 12009KT 06/05 A2987 RMK A01 T00630052  RH  093%=      5-min Rain = 0
KQU1 222153Z 11007KT 06/05 A2987 RMK A01 T00630053  RH  093%=      5-min Rain = 0
KQU1 222154Z 11008KT 06/05 A2987 RMK A01 T00630053  RH  093%=      5-min Rain = 0
KQU1 222155Z 12009KT 06/05 A2986 RMK A01 T00630053  RH  093%=      5-min Rain = 0
KQU1 222156Z 12009KT 06/05 A2986 RMK A01 T00630052  RH  093%=      5-min Rain = 0
KQU1 222157Z 11008KT 06/05 A2986 RMK A01 T00630052  RH  093%=      5-min Rain = 0
KQU1 222158Z 11008KT 06/05 A2986 RMK A01 T00630052  RH  093%=      5-min Rain = 0
KQU1 222159Z 11008KT 06/05 A2986 RMK A01 T00630052  RH  093%=      5-min Rain = 0
KQU1 222200Z 11008KT 06/05 A2986 RMK A01 T00630053  RH  093%=      5-min Rain = 0
KQU1 222201Z 11008KT 06/05 A2986 RMK A01 T00630052  RH  092%=      5-min Rain = 0
KQU1 222202Z 12008KT 06/05 A2986 RMK A01 T00630053  RH  093%=      5-min Rain = 0
KQU1 222203Z 12008KT 06/05 A2986 RMK A01 T00640052  RH  092%=      5-min Rain = 0
KQU1 222204Z 11008KT 06/05 A2986 RMK A01 T00630052  RH  093%=      5-min Rain = 0
KQU1 222205Z 12008KT 06/05 A2986 RMK A01 T00630052  RH  092%=      5-min Rain = 0
KQU1 222206Z 13007KT 06/05 A2986 RMK A01 T00630051  RH  092%=      5-min Rain = 0
KQU1 222207Z 12006KT 06/05 A2986 RMK A01 T00630052  RH  093%=      5-min Rain = 0
KQU1 222208Z 13009KT 06/05 A2986 RMK A01 T00630052  RH  093%=      5-min Rain = 0
KQU1 222209Z 13008KT 06/05 A2986 RMK A01 T00630052  RH  092%=      5-min Rain = 0
KQU1 222210Z 12010KT 06/05 A2986 RMK A01 T00630052  RH  092%=      5-min Rain = 0
KQU1 222211Z 13009KT 06/05 A2986 RMK A01 T00630051  RH  092%=      5-min Rain = 0
KQU1 222212Z 13009KT 06/05 A2986 RMK A01 T00640051  RH  092%=      5-min Rain = 0
KQU1 222213Z 12008KT 06/05 A2986 RMK A01 T00640052  RH  092%=      5-min Rain = 0
KQU1 222214Z 12007KT 06/05 A2986 RMK A01 T00640052  RH  092%=      5-min Rain = 0
KQU1 222215Z 12007KT 07/05 A2986 RMK A01 T00650052  RH  092%=      5-min Rain = 0
KQU1 222216Z 13006KT 06/05 A2986 RMK A01 T00640050  RH  091%=      5-min Rain = 0
KQU1 222217Z 13006KT 06/05 A2986 RMK A01 T00640051  RH  091%=      5-min Rain = 0
KQU1 222218Z 13008KT 06/05 A2986 RMK A01 T00640052  RH  092%=      5-min Rain = 0
KQU1 222219Z 13009KT 06/05 A2986 RMK A01 T00640051  RH  091%=      5-min Rain = 0
KQU1 222220Z 13008KT 06/05 A2986 RMK A01 T00640050  RH  091%=      5-min Rain = 0
KQU1 222221Z 14007KT 07/05 A2986 RMK A01 T00650052  RH  091%=      5-min Rain = 0
KQU1 222222Z 14006KT 07/05 A2986 RMK A01 T00650052  RH  091%=      5-min Rain = 0
KQU1 222223Z 15007KT 07/05 A2986 RMK A01 T00660053  RH  091%=      5-min Rain = 0
KQU1 222224Z 15007KT 07/05 A2986 RMK A01 T00660051  RH  090%=      5-min Rain = 0
KQU1 222225Z 16007KT 07/05 A2986 RMK A01 T00660050  RH  089%=      5-min Rain = 0
KQU1 222226Z 15006KT 07/05 A2986 RMK A01 T00660049  RH  089%=      5-min Rain = 0
KQU1 222227Z 14006KT 07/05 A2986 RMK A01 T00660049  RH  089%=      5-min Rain = 0
KQU1 222228Z 14008KT 07/05 A2986 RMK A01 T00660050  RH  089%=      5-min Rain = 0
KQU1 222229Z 15008KT 07/05 A2986 RMK A01 T00670049  RH  089%=      5-min Rain = 0
KQU1 222230Z 17007KT 07/05 A2986 RMK A01 T00670049  RH  089%=      5-min Rain = 0
KQU1 222231Z 16008KT 07/05 A2986 RMK A01 T00670049  RH  089%=      5-min Rain = 0
KQU1 222232Z 16008KT 07/05 A2986 RMK A01 T00670049  RH  088%=      5-min Rain = 0
KQU1 222233Z 15008KT 07/05 A2986 RMK A01 T00670048  RH  088%=      5-min Rain = 0
KQU1 222234Z 14007KT 07/05 A2986 RMK A01 T00670048  RH  088%=      5-min Rain = 0
KQU1 222235Z 14007KT 07/05 A2986 RMK A01 T00670049  RH  088%=      5-min Rain = 0
KQU1 222236Z 15007KT 07/05 A2986 RMK A01 T00670049  RH  088%=      5-min Rain = 0
KQU1 222237Z 15006KT 07/05 A2986 RMK A01 T00670050  RH  089%=      5-min Rain = 0
KQU1 222238Z 13006KT 07/05 A2986 RMK A01 T00670050  RH  089%=      5-min Rain = 0
KQU1 222239Z 13008KT 07/05 A2986 RMK A01 T00670049  RH  088%=      5-min Rain = 0
KQU1 222240Z 13007KT 07/05 A2986 RMK A01 T00670049  RH  088%=      5-min Rain = 0
KQU1 222241Z 12007KT 07/05 A2986 RMK A01 T00670049  RH  089%=      5-min Rain = 0
KQU1 222242Z 12006KT 07/05 A2986 RMK A01 T00660048  RH  088%=      5-min Rain = 0
KQU1 222243Z 12006KT 07/05 A2986 RMK A01 T00660049  RH  089%=      5-min Rain = 0
KQU1 222244Z 12008KT 07/05 A2986 RMK A01 T00660049  RH  089%=      5-min Rain = 0
KQU1 222245Z 13008KT 07/05 A2986 RMK A01 T00660050  RH  089%=      5-min Rain = 0
KQU1 222246Z 13009KT 07/05 A2986 RMK A01 T00660050  RH  089%=      5-min Rain = 0
KQU1 222247Z 13007KT 07/05 A2986 RMK A01 T00660050  RH  090%=      5-min Rain = 0
KQU1 222248Z 12008KT 07/05 A2986 RMK A01 T00660050  RH  090%=      5-min Rain = 0
KQU1 222249Z 13008KT 07/05 A2986 RMK A01 T00660050  RH  090%=      5-min Rain = 0
KQU1 222250Z 12008KT 07/05 A2986 RMK A01 T00660050  RH  090%=      5-min Rain = 0
KQU1 222251Z 12009KT 07/05 A2986 RMK A01 T00660051  RH  090%=      5-min Rain = 0
KQU1 222252Z 11008KT 07/05 A2986 RMK A01 T00660051  RH  090%=      5-min Rain = 0
KQU1 222253Z 11007KT 07/05 A2986 RMK A01 T00660051  RH  091%=      5-min Rain = 0
KQU1 222254Z 11007KT 07/05 A2986 RMK A01 T00650051  RH  091%=      5-min Rain = 0
KQU1 222255Z 11009KT 07/05 A2986 RMK A01 T00650051  RH  091%=      5-min Rain = 0
KQU1 222256Z 10009KT 06/05 A2986 RMK A01 T00640051  RH  091%=      5-min Rain = 0
KQU1 222257Z 11006KT 06/05 A2986 RMK A01 T00640052  RH  092%=      5-min Rain = 0
KQU1 222258Z 11009KT 06/05 A2986 RMK A01 T00640052  RH  092%=      5-min Rain = 0
KQU1 222259Z 11008KT 06/05 A2986 RMK A01 T00640052  RH  092%=      5-min Rain = 0
KQU1 222300Z 10009KT 06/05 A2986 RMK A01 T00640051  RH  092%=      5-min Rain = 0
KQU1 222301Z 10009KT 06/05 A2986 RMK A01 T00630051  RH  092%=      5-min Rain = 0
KQU1 222302Z 10009KT 06/05 A2986 RMK A01 T00630052  RH  092%=      5-min Rain = 0
KQU1 222303Z 11008KT 06/05 A2986 RMK A01 T00630051  RH  092%=      5-min Rain = 0
KQU1 222304Z 11007KT 06/05 A2986 RMK A01 T00630052  RH  093%=      5-min Rain = 0
KQU1 222305Z 11008KT 06/05 A2986 RMK A01 T00630052  RH  093%=      5-min Rain = 0
KQU1 222306Z 12007KT 06/05 A2986 RMK A01 T00630052  RH  093%=      5-min Rain = 0
KQU1 222307Z 11010KT 06/05 A2986 RMK A01 T00630051  RH  092%=      5-min Rain = 0
KQU1 222308Z 12010KT 06/05 A2986 RMK A01 T00620051  RH  092%=      5-min Rain = 0
KQU1 222309Z 12009KT 06/05 A2986 RMK A01 T00620051  RH  093%=      5-min Rain = 0
KQU1 222310Z 11009KT 06/05 A2986 RMK A01 T00620051  RH  093%=      5-min Rain = 0
KQU1 222311Z 12008KT 06/05 A2986 RMK A01 T00620051  RH  093%=      5-min Rain = 0
KQU1 222312Z 12010KT 06/05 A2986 RMK A01 T00620051  RH  093%=      5-min Rain = 0
KQU1 222313Z 12010KT 06/05 A2986 RMK A01 T00610051  RH  093%=      5-min Rain = 0
KQU1 222314Z 12010KT 06/05 A2986 RMK A01 T00610051  RH  093%=      5-min Rain = 0
KQU1 222315Z 12010KT 06/05 A2986 RMK A01 T00610051  RH  093%=      5-min Rain = 0
KQU1 222316Z 12009KT 06/05 A2986 RMK A01 T00610051  RH  093%=      5-min Rain = 0
KQU1 222317Z 12010KT 06/05 A2985 RMK A01 T00610051  RH  093%=      5-min Rain = 0
KQU1 222318Z 12009KT 06/05 A2985 RMK A01 T00610051  RH  093%=      5-min Rain = 0
KQU1 222319Z 12009KT 06/05 A2985 RMK A01 T00610051  RH  093%=      5-min Rain = 0
KQU1 222320Z 12010KT 06/05 A2985 RMK A01 T00610051  RH  093%=      5-min Rain = 0
KQU1 222321Z 12010KT 06/05 A2985 RMK A01 T00610051  RH  093%=      5-min Rain = 0
KQU1 222322Z 12009KT 06/05 A2985 RMK A01 T00610051  RH  093%=      5-min Rain = 0
KQU1 222323Z 12009KT 06/05 A2985 RMK A01 T00610051  RH  093%=      5-min Rain = 0
KQU1 222324Z 12009KT 06/05 A2985 RMK A01 T00600051  RH  094%=      5-min Rain = 0
KQU1 222325Z 12008KT 06/05 A2985 RMK A01 T00610051  RH  094%=      5-min Rain = 0
KQU1 222326Z 11010KT 06/05 A2985 RMK A01 T00610051  RH  094%=      5-min Rain = 0
KQU1 222327Z 11010KT 06/05 A2985 RMK A01 T00610051  RH  094%=      5-min Rain = 0
KQU1 222328Z 12010KT 06/05 A2985 RMK A01 T00600051  RH  094%=      5-min Rain = 0
KQU1 222329Z 12010KT 06/05 A2985 RMK A01 T00600051  RH  094%=      5-min Rain = 0
KQU1 222330Z 12010KT 06/05 A2985 RMK A01 T00600051  RH  094%=      5-min Rain = 0
KQU1 222331Z 12010KT 06/05 A2985 RMK A01 T00600051  RH  094%=      5-min Rain = 0
KQU1 222332Z 11011KT 06/05 A2985 RMK A01 T00590051  RH  094%=      5-min Rain = 0
KQU1 222333Z 11011KT 06/05 A2985 RMK A01 T00590051  RH  094%=      5-min Rain = 0
KQU1 222334Z 11010KT 06/05 A2985 RMK A01 T00590050  RH  094%=      5-min Rain = 0
KQU1 222335Z 11007KT 06/05 A2985 RMK A01 T00580051  RH  095%=      5-min Rain = 0
KQU1 222336Z 12008KT 06/05 A2985 RMK A01 T00580051  RH  095%=      5-min Rain = 0
KQU1 222337Z 12007KT 06/05 A2985 RMK A01 T00580051  RH  095%=      5-min Rain = 0
KQU1 222338Z 11008KT 06/05 A2984 RMK A01 T00580051  RH  095%=      5-min Rain = 0
KQU1 222339Z 11008KT 06/05 A2984 RMK A01 T00580051  RH  095%=      5-min Rain = 0
KQU1 222340Z 11008KT 06/05 A2984 RMK A01 T00580051  RH  095%=      5-min Rain = 0
KQU1 222341Z 11009KT 06/05 A2984 RMK A01 T00580051  RH  095%=      5-min Rain = 0
KQU1 222342Z 11008KT 06/05 A2984 RMK A01 T00580051  RH  095%=      5-min Rain = 0
KQU1 222343Z 11007KT 06/05 A2984 RMK A01 T00580051  RH  096%=      5-min Rain = 0
KQU1 222344Z 11008KT 06/05 A2984 RMK A01 T00580051  RH  096%=      5-min Rain = 0
KQU1 222345Z 12007KT 06/05 A2984 RMK A01 T00580051  RH  096%=      5-min Rain = 0
KQU1 222346Z 12008KT 06/05 A2984 RMK A01 T00580051  RH  096%=      5-min Rain = 0
KQU1 222347Z 12008KT 06/05 A2984 RMK A01 T00580051  RH  096%=      5-min Rain = 0
KQU1 222348Z 11010KT 06/05 A2984 RMK A01 T00570051  RH  096%=      5-min Rain = 0
KQU1 222349Z 11009KT 06/05 A2984 RMK A01 T00570051  RH  096%=      5-min Rain = 0
KQU1 222350Z 12008KT 06/05 A2984 RMK A01 T00570051  RH  096%=      5-min Rain = 0
KQU1 222351Z 11010KT 06/05 A2984 RMK A01 T00570050  RH  096%=      5-min Rain = 0
KQU1 222352Z 10011KT 06/05 A2984 RMK A01 T00560050  RH  096%=      5-min Rain = 0
KQU1 222353Z 10011KT 06/05 A2984 RMK A01 T00560050  RH  096%=      5-min Rain = 0
KQU1 222354Z 11010KT 06/05 A2984 RMK A01 T00550050  RH  096%=      5-min Rain = 0
KQU1 222355Z 10008KT 06/05 A2984 RMK A01 T00550050  RH  096%=      5-min Rain = 0
KQU1 222356Z 11010KT 06/05 A2984 RMK A01 T00550050  RH  096%=      5-min Rain = 0
KQU1 222357Z 12008KT 06/05 A2984 RMK A01 T00550049  RH  096%=      5-min Rain = 0
KQU1 222358Z 12010KT 06/05 A2985 RMK A01 T00550050  RH  096%=      5-min Rain = 0
KQU1 222359Z 12009KT 06/05 A2985 RMK A01 T00550050  RH  096%=      5-min Rain = 0
KQU1 230000Z 12009KT 06/05 A2985 RMK A01 T00550050  RH  097%=      5-min Rain = 0
KQU1 230001Z 12009KT 06/05 A2985 RMK A01 T00550050  RH  097%=      5-min Rain = 0
KQU1 230002Z 12008KT 06/05 A2985 RMK A01 T00550050  RH  097%=      5-min Rain = 0
KQU1 230003Z 11008KT 06/05 A2985 RMK A01 T00550050  RH  097%=      5-min Rain = 0
KQU1 230004Z 11008KT 06/05 A2985 RMK A01 T00550050  RH  097%=      5-min Rain = 0
KQU1 230005Z 12008KT 06/05 A2985 RMK A01 T00550050  RH  097%=      5-min Rain = 0
KQU1 230006Z 10008KT 06/05 A2985 RMK A01 T00550050  RH  097%=      5-min Rain = 0
KQU1 230007Z 10009KT 06/05 A2985 RMK A01 T00550050  RH  097%=      5-min Rain = 0
KQU1 230008Z 11007KT 05/05 A2985 RMK A01 T00540050  RH  097%=      5-min Rain = 0
KQU1 230009Z 12006KT 05/05 A2985 RMK A01 T00540050  RH  097%=      5-min Rain = 0
KQU1 230010Z 12005KT 05/05 A2985 RMK A01 T00540050  RH  097%=      5-min Rain = 0
KQU1 230011Z 11005KT 06/05 A2985 RMK A01 T00550050  RH  097%=      5-min Rain = 0
KQU1 230012Z 12005KT 06/05 A2985 RMK A01 T00550050  RH  097%=      5-min Rain = 0
KQU1 230013Z 12006KT 06/05 A2985 RMK A01 T00550050  RH  097%=      5-min Rain = 0
KQU1 230014Z 12007KT 06/05 A2985 RMK A01 T00550051  RH  097%=      5-min Rain = 0
KQU1 230015Z 13007KT 06/05 A2985 RMK A01 T00550051  RH  097%=      5-min Rain = 0
KQU1 230016Z 13008KT 06/05 A2985 RMK A01 T00550050  RH  097%=      5-min Rain = 0
KQU1 230017Z 13007KT 06/05 A2985 RMK A01 T00550050  RH  097%=      5-min Rain = 0
KQU1 230018Z 12008KT 06/05 A2985 RMK A01 T00550050  RH  097%=      5-min Rain = 0
KQU1 230019Z 13007KT 05/05 A2985 RMK A01 T00540050  RH  097%=      5-min Rain = 0
KQU1 230020Z 13007KT 05/05 A2985 RMK A01 T00540050  RH  097%=      5-min Rain = 0
KQU1 230021Z 12007KT 05/05 A2985 RMK A01 T00540050  RH  097%=      5-min Rain = 0
KQU1 230022Z 12009KT 05/05 A2985 RMK A01 T00540050  RH  097%=      5-min Rain = 0
KQU1 230023Z 12008KT 05/05 A2985 RMK A01 T00540050  RH  097%=      5-min Rain = 0
KQU1 230024Z 11006KT 05/05 A2985 RMK A01 T00540050  RH  097%=      5-min Rain = 0
KQU1 230025Z 12006KT 05/05 A2985 RMK A01 T00540050  RH  097%=      5-min Rain = 0
KQU1 230026Z 11007KT 05/05 A2985 RMK A01 T00540050  RH  097%=      5-min Rain = 0
KQU1 230027Z 11009KT 05/05 A2985 RMK A01 T00540050  RH  097%=      5-min Rain = 0
KQU1 230028Z 11008KT 05/05 A2985 RMK A01 T00530049  RH  097%=      5-min Rain = 0
KQU1 230029Z 12008KT 05/05 A2985 RMK A01 T00530049  RH  097%=      5-min Rain = 0
KQU1 230030Z 12007KT 05/05 A2985 RMK A01 T00530049  RH  097%=      5-min Rain = 0
KQU1 230031Z 12007KT 05/05 A2985 RMK A01 T00530049  RH  097%=      5-min Rain = 0
KQU1 230032Z 12008KT 05/05 A2985 RMK A01 T00530049  RH  097%=      5-min Rain = 0
KQU1 230033Z 12009KT 05/05 A2985 RMK A01 T00530049  RH  097%=      5-min Rain = 0
KQU1 230034Z 12009KT 05/05 A2985 RMK A01 T00530049  RH  097%=      5-min Rain = 0
KQU1 230035Z 12008KT 05/05 A2985 RMK A01 T00530049  RH  097%=      5-min Rain = 0
KQU1 230036Z 12008KT 05/05 A2985 RMK A01 T00530049  RH  097%=      5-min Rain = 0
KQU1 230037Z 12006KT 05/05 A2985 RMK A01 T00530049  RH  097%=      5-min Rain = 0
KQU1 230038Z 11007KT 05/05 A2985 RMK A01 T00530049  RH  098%=      5-min Rain = 0
KQU1 230039Z 12007KT 05/05 A2985 RMK A01 T00530049  RH  098%=      5-min Rain = 0
KQU1 230040Z 13008KT 05/05 A2985 RMK A01 T00530049  RH  098%=      5-min Rain = 0
KQU1 230041Z 12009KT 05/05 A2985 RMK A01 T00530049  RH  098%=      5-min Rain = 0
KQU1 230042Z 12008KT 05/05 A2986 RMK A01 T00530049  RH  098%=      5-min Rain = 0
KQU1 230043Z 12008KT 05/05 A2986 RMK A01 T00530049  RH  098%=      5-min Rain = 0
KQU1 230044Z 12008KT 05/05 A2986 RMK A01 T00520049  RH  098%=      5-min Rain = 0
KQU1 230045Z 13008KT 05/05 A2985 RMK A01 T00520049  RH  098%=      5-min Rain = 0
KQU1 230046Z 12007KT 05/05 A2985 RMK A01 T00520049  RH  098%=      5-min Rain = 0
KQU1 230047Z 12007KT 05/05 A2985 RMK A01 T00520049  RH  098%=      5-min Rain = 0
KQU1 230048Z 11008KT 05/05 A2985 RMK A01 T00520049  RH  098%=      5-min Rain = 0
KQU1 230049Z 11009KT 05/05 A2985 RMK A01 T00520049  RH  098%=      5-min Rain = 0
KQU1 230050Z 12008KT 05/05 A2985 RMK A01 T00520049  RH  098%=      5-min Rain = 0
KQU1 230051Z 12008KT 05/05 A2985 RMK A01 T00520049  RH  098%=      5-min Rain = 0
KQU1 230052Z 12007KT 05/05 A2985 RMK A01 T00520049  RH  098%=      5-min Rain = 0
KQU1 230053Z 12007KT 05/05 A2985 RMK A01 T00520049  RH  098%=      5-min Rain = 0
KQU1 230054Z 12008KT 05/05 A2985 RMK A01 T00520049  RH  098%=      5-min Rain = 0
KQU1 230055Z 13008KT 05/05 A2985 RMK A01 T00520049  RH  098%=      5-min Rain = 0
KQU1 230056Z 12007KT 05/05 A2985 RMK A01 T00520049  RH  098%=      5-min Rain = 0
KQU1 230057Z 12008KT 05/05 A2985 RMK A01 T00520049  RH  098%=      5-min Rain = 0
KQU1 230058Z 12008KT 05/05 A2985 RMK A01 T00520049  RH  098%=      5-min Rain = 0
KQU1 230059Z 12008KT 05/05 A2985 RMK A01 T00520049  RH  098%=      5-min Rain = 0
KQU1 230100Z 12007KT 05/05 A2986 RMK A01 T00520049  RH  098%=      5-min Rain = 0
KQU1 230101Z 12007KT 05/05 A2986 RMK A01 T00520049  RH  098%=      5-min Rain = 0
KQU1 230102Z 12007KT 05/05 A2986 RMK A01 T00520049  RH  098%=      5-min Rain = 0
KQU1 230103Z 12006KT 05/05 A2986 RMK A01 T00520049  RH  098%=      5-min Rain = 0
KQU1 230104Z 12007KT 05/05 A2986 RMK A01 T00520049  RH  098%=      5-min Rain = 0
KQU1 230105Z 12008KT 05/05 A2986 RMK A01 T00520049  RH  098%=      5-min Rain = 0
KQU1 230106Z 12008KT 05/05 A2986 RMK A01 T00520049  RH  098%=      5-min Rain = 0
KQU1 230107Z 11006KT 05/05 A2986 RMK A01 T00520049  RH  098%=      5-min Rain = 0
KQU1 230108Z 11006KT 05/05 A2986 RMK A01 T00520049  RH  098%=      5-min Rain = 0
KQU1 230109Z 11006KT 05/05 A2986 RMK A01 T00520049  RH  098%=      5-min Rain = 0
KQU1 230110Z 12006KT 05/05 A2986 RMK A01 T00520049  RH  098%=      5-min Rain = 0
KQU1 230111Z 12006KT 05/05 A2986 RMK A01 T00520049  RH  098%=      5-min Rain = 0
KQU1 230112Z 12006KT 05/05 A2986 RMK A01 T00520049  RH  098%=      5-min Rain = 0
KQU1 230113Z 10006KT 05/05 A2986 RMK A01 T00520050  RH  098%=      5-min Rain = 0
KQU1 230114Z 11005KT 05/05 A2986 RMK A01 T00520050  RH  098%=      5-min Rain = 0
KQU1 230115Z 10005KT 05/05 A2986 RMK A01 T00520050  RH  098%=      5-min Rain = 0
KQU1 230116Z 09006KT 05/05 A2986 RMK A01 T00520050  RH  098%=      5-min Rain = 0
KQU1 230117Z 10007KT 05/05 A2986 RMK A01 T00520049  RH  098%=      5-min Rain = 0
KQU1 230118Z 10008KT 05/05 A2986 RMK A01 T00520049  RH  098%=      5-min Rain = 0
KQU1 230119Z 10007KT 05/05 A2986 RMK A01 T00520049  RH  098%=      5-min Rain = 0
KQU1 230120Z 10006KT 05/05 A2986 RMK A01 T00520049  RH  098%=      5-min Rain = 0
KQU1 230121Z 11006KT 05/05 A2986 RMK A01 T00520049  RH  098%=      5-min Rain = 0
KQU1 230122Z 11007KT 05/05 A2986 RMK A01 T00520049  RH  098%=      5-min Rain = 0
KQU1 230123Z 11005KT 05/05 A2986 RMK A01 T00520049  RH  098%=      5-min Rain = 0
KQU1 230124Z 11006KT 05/05 A2986 RMK A01 T00520049  RH  098%=      5-min Rain = 0
KQU1 230125Z 10006KT 05/05 A2986 RMK A01 T00520049  RH  098%=      5-min Rain = 0
KQU1 230126Z 10007KT 05/05 A2986 RMK A01 T00520049  RH  098%=      5-min Rain = 0
KQU1 230127Z 10005KT 05/05 A2986 RMK A01 T00520049  RH  098%=      5-min Rain = 0
KQU1 230128Z 09006KT 05/05 A2986 RMK A01 T00520049  RH  098%=      5-min Rain = 0
KQU1 230129Z 10005KT 05/05 A2986 RMK A01 T00520049  RH  098%=      5-min Rain = 0
KQU1 230130Z 09005KT 05/05 A2986 RMK A01 T00520049  RH  098%=      5-min Rain = 0
KQU1 230131Z 09004KT 05/05 A2985 RMK A01 T00520050  RH  098%=      5-min Rain = 0
KQU1 230132Z 08005KT 05/05 A2985 RMK A01 T00520050  RH  098%=      5-min Rain = 0
KQU1 230133Z 09005KT 05/05 A2985 RMK A01 T00520050  RH  098%=      5-min Rain = 0
KQU1 230134Z 08005KT 05/05 A2985 RMK A01 T00520050  RH  098%=      5-min Rain = 0
KQU1 230135Z 08005KT 05/05 A2985 RMK A01 T00520050  RH  098%=      5-min Rain = 0
KQU1 230136Z 08006KT 05/05 A2985 RMK A01 T00520050  RH  098%=      5-min Rain = 0
KQU1 230137Z 06004KT 05/05 A2985 RMK A01 T00520050  RH  098%=      5-min Rain = 0
KQU1 230138Z 06004KT 05/05 A2985 RMK A01 T00520050  RH  098%=      5-min Rain = 0
KQU1 230139Z 07005KT 05/05 A2985 RMK A01 T00520050  RH  098%=      5-min Rain = 0
KQU1 230140Z 07005KT 05/05 A2985 RMK A01 T00520050  RH  098%=      5-min Rain = 0
KQU1 230141Z 06005KT 05/05 A2985 RMK A01 T00520050  RH  098%=      5-min Rain = 0
KQU1 230142Z 06005KT 05/05 A2985 RMK A01 T00520050  RH  098%=      5-min Rain = 0
KQU1 230143Z 07006KT 05/05 A2985 RMK A01 T00520050  RH  098%=      5-min Rain = 0
KQU1 230144Z 08006KT 05/05 A2985 RMK A01 T00520050  RH  098%=      5-min Rain = 0
KQU1 230145Z 07006KT 05/05 A2985 RMK A01 T00520050  RH  098%=      5-min Rain = 0
KQU1 230146Z 08007KT 05/05 A2985 RMK A01 T00520050  RH  098%=      5-min Rain = 0
KQU1 230147Z 08006KT 05/05 A2985 RMK A01 T00520050  RH  098%=      5-min Rain = 0
KQU1 230148Z 08005KT 05/05 A2985 RMK A01 T00520050  RH  098%=      5-min Rain = 0
KQU1 230149Z 07006KT 05/05 A2985 RMK A01 T00520050  RH  099%=      5-min Rain = 0
KQU1 230150Z 08007KT 05/05 A2985 RMK A01 T00520050  RH  099%=      5-min Rain = 0
KQU1 230151Z 08006KT 05/05 A2985 RMK A01 T00520050  RH  099%=      5-min Rain = 0
KQU1 230152Z 08005KT 05/05 A2985 RMK A01 T00520050  RH  099%=      5-min Rain = 0
KQU1 230153Z 08005KT 05/05 A2985 RMK A01 T00520050  RH  099%=      5-min Rain = 0
KQU1 230154Z 07004KT 05/05 A2984 RMK A01 T00520050  RH  099%=      5-min Rain = 0
KQU1 230155Z 07006KT 05/05 A2984 RMK A01 T00520050  RH  099%=      5-min Rain = 0
KQU1 230156Z 07007KT 05/05 A2984 RMK A01 T00520050  RH  099%=      5-min Rain = 0
KQU1 230157Z 08005KT 05/05 A2984 RMK A01 T00520050  RH  099%=      5-min Rain = 0
KQU1 230158Z 07006KT 05/05 A2984 RMK A01 T00520050  RH  099%=      5-min Rain = 0
KQU1 230159Z 08007KT 05/05 A2985 RMK A01 T00520050  RH  099%=      5-min Rain = 0
KQU1 230200Z 08006KT 05/05 A2985 RMK A01 T00520050  RH  099%=      5-min Rain = 0
KQU1 230201Z 08005KT 05/05 A2985 RMK A01 T00520050  RH  099%=      5-min Rain = 0
KQU1 230202Z 07005KT 05/05 A2984 RMK A01 T00520050  RH  099%=      5-min Rain = 0
KQU1 230203Z 08007KT 05/05 A2985 RMK A01 T00520050  RH  099%=      5-min Rain = 0
KQU1 230204Z 08006KT 05/05 A2985 RMK A01 T00520050  RH  099%=      5-min Rain = 0
KQU1 230205Z 09006KT 05/05 A2985 RMK A01 T00520050  RH  099%=      5-min Rain = 0
KQU1 230206Z 09008KT 05/05 A2985 RMK A01 T00520050  RH  099%=      5-min Rain = 0
KQU1 230207Z 09007KT 05/05 A2985 RMK A01 T00520050  RH  099%=      5-min Rain = 0
KQU1 230208Z 09006KT 05/05 A2985 RMK A01 T00520050  RH  099%=      5-min Rain = 0
KQU1 230209Z 09006KT 05/05 A2985 RMK A01 T00520050  RH  099%=      5-min Rain = 0
KQU1 230210Z 09007KT 05/05 A2985 RMK A01 T00520050  RH  099%=      5-min Rain = 0
KQU1 230211Z 10008KT 05/05 A2984 RMK A01 T00520050  RH  099%=      5-min Rain = 0
KQU1 230212Z 09007KT 05/05 A2984 RMK A01 T00520050  RH  099%=      5-min Rain = 0
KQU1 230213Z 09007KT 05/05 A2984 RMK A01 T00520050  RH  099%=      5-min Rain = 0
KQU1 230214Z 09008KT 05/05 A2984 RMK A01 T00520050  RH  099%=      5-min Rain = 0
KQU1 230215Z 09008KT 05/05 A2984 RMK A01 T00520050  RH  099%=      5-min Rain = 0
KQU1 230216Z 08007KT 05/05 A2984 RMK A01 T00520050  RH  099%=      5-min Rain = 0
KQU1 230217Z 08009KT 05/05 A2984 RMK A01 T00520050  RH  099%=      5-min Rain = 0
KQU1 230218Z 09008KT 05/05 A2984 RMK A01 T00520050  RH  099%=      5-min Rain = 0
KQU1 230219Z 09008KT 05/05 A2984 RMK A01 T00520050  RH  099%=      5-min Rain = 0
KQU1 230220Z 09007KT 05/05 A2983 RMK A01 T00520050  RH  099%=      5-min Rain = 0
KQU1 230221Z 09008KT 05/05 A2983 RMK A01 T00520050  RH  099%=      5-min Rain = 0
KQU1 230222Z 09007KT 05/05 A2983 RMK A01 T00510050  RH  099%=      5-min Rain = 0
KQU1 230223Z 09007KT 05/05 A2983 RMK A01 T00510050  RH  099%=      5-min Rain = 0
KQU1 230224Z 09006KT 05/05 A2983 RMK A01 T00510050  RH  099%=      5-min Rain = 0
KQU1 230225Z 09007KT 05/05 A2984 RMK A01 T00510050  RH  099%=      5-min Rain = 0
KQU1 230226Z 09006KT 05/05 A2983 RMK A01 T00510050  RH  099%=      5-min Rain = 0
KQU1 230227Z 09007KT 05/05 A2983 RMK A01 T00510050  RH  099%=      5-min Rain = 0
KQU1 230228Z 09007KT 05/05 A2983 RMK A01 T00510050  RH  099%=      5-min Rain = 0
KQU1 230229Z 09009KT 05/05 A2983 RMK A01 T00510049  RH  099%=      5-min Rain = 0
KQU1 230230Z 09009KT 05/05 A2983 RMK A01 T00510049  RH  099%=      5-min Rain = 0
KQU1 230231Z 09008KT 05/05 A2983 RMK A01 T00510049  RH  099%=      5-min Rain = 0
KQU1 230232Z 09008KT 05/05 A2983 RMK A01 T00510049  RH  099%=      5-min Rain = 0
KQU1 230233Z 10006KT 05/05 A2983 RMK A01 T00510049  RH  099%=      5-min Rain = 0
KQU1 230234Z 10005KT 05/05 A2983 RMK A01 T00510050  RH  099%=      5-min Rain = 0
KQU1 230235Z 09008KT 05/05 A2983 RMK A01 T00510050  RH  099%=      5-min Rain = 0
KQU1 230236Z 09008KT 05/05 A2983 RMK A01 T00510050  RH  099%=      5-min Rain = 0
KQU1 230237Z 10008KT 05/05 A2983 RMK A01 T00510049  RH  099%=      5-min Rain = 0
KQU1 230238Z 10007KT 05/05 A2983 RMK A01 T00510049  RH  099%=      5-min Rain = 0
KQU1 230239Z 10007KT 05/05 A2983 RMK A01 T00510049  RH  099%=      5-min Rain = 0
KQU1 230240Z 10008KT 05/05 A2983 RMK A01 T00510049  RH  099%=      5-min Rain = 0
KQU1 230241Z 09008KT 05/05 A2983 RMK A01 T00510049  RH  099%=      5-min Rain = 0
KQU1 230242Z 09008KT 05/05 A2983 RMK A01 T00510049  RH  099%=      5-min Rain = 0
KQU1 230243Z 10007KT 05/05 A2983 RMK A01 T00510049  RH  099%=      5-min Rain = 0
KQU1 230244Z 10006KT 05/05 A2983 RMK A01 T00510049  RH  099%=      5-min Rain = 0
KQU1 230245Z 10005KT 05/05 A2983 RMK A01 T00510049  RH  099%=      5-min Rain = 0
KQU1 230246Z 10007KT 05/05 A2983 RMK A01 T00510049  RH  099%=      5-min Rain = 0
KQU1 230247Z 10008KT 05/05 A2982 RMK A01 T00510049  RH  099%=      5-min Rain = 0
KQU1 230248Z 09007KT 05/05 A2982 RMK A01 T00510049  RH  099%=      5-min Rain = 0
KQU1 230249Z 09009KT 05/05 A2982 RMK A01 T00510049  RH  099%=      5-min Rain = 0
KQU1 230250Z 09009KT 05/05 A2982 RMK A01 T00510049  RH  099%=      5-min Rain = 0
KQU1 230251Z 10009KT 05/05 A2982 RMK A01 T00510049  RH  099%=      5-min Rain = 0
KQU1 230252Z 09008KT 05/05 A2982 RMK A01 T00500049  RH  099%=      5-min Rain = 0
KQU1 230253Z 09008KT 05/05 A2982 RMK A01 T00500049  RH  099%=      5-min Rain = 0
KQU1 230254Z 09007KT 05/05 A2982 RMK A01 T00500049  RH  099%=      5-min Rain = 0
KQU1 230255Z 09007KT 05/05 A2982 RMK A01 T00500049  RH  099%=      5-min Rain = 0
KQU1 230256Z 10008KT 05/05 A2982 RMK A01 T00500049  RH  099%=      5-min Rain = 0
KQU1 230257Z 09008KT 05/05 A2982 RMK A01 T00500049  RH  099%=      5-min Rain = 0
KQU1 230258Z 09008KT 05/05 A2982 RMK A01 T00500049  RH  099%=      5-min Rain = 0
KQU1 230259Z 08007KT 05/05 A2982 RMK A01 T00500049  RH  099%=      5-min Rain = 0
KQU1 230300Z 10007KT 05/05 A2982 RMK A01 T00500049  RH  099%=      5-min Rain = 0
KQU1 230301Z 09007KT 05/05 A2982 RMK A01 T00500049  RH  099%=      5-min Rain = 0
KQU1 230302Z 10010KT 05/05 A2982 RMK A01 T00500049  RH  099%=      5-min Rain = 0
KQU1 230303Z 09009KT 05/05 A2982 RMK A01 T00500049  RH  099%=      5-min Rain = 0
KQU1 230304Z 09008KT 05/05 A2981 RMK A01 T00500049  RH  099%=      5-min Rain = 0
KQU1 230305Z 09008KT 05/05 A2981 RMK A01 T00500049  RH  099%=      5-min Rain = 0
KQU1 230306Z 09006KT 05/05 A2981 RMK A01 T00500049  RH  099%=      5-min Rain = 0
KQU1 230307Z 09006KT 05/05 A2982 RMK A01 T00500049  RH  099%=      5-min Rain = 0
KQU1 230308Z 09007KT 05/05 A2982 RMK A01 T00490048  RH  099%=      5-min Rain = 0
KQU1 230309Z 09008KT 05/05 A2982 RMK A01 T00490047  RH  099%=      5-min Rain = 0
KQU1 230310Z 10008KT 05/05 A2982 RMK A01 T00480047  RH  099%=      5-min Rain = 0
KQU1 230311Z 10008KT 05/05 A2982 RMK A01 T00480047  RH  099%=      5-min Rain = 0
KQU1 230312Z 10008KT 05/05 A2982 RMK A01 T00470046  RH  099%=      5-min Rain = 0
KQU1 230313Z 10007KT 05/05 A2982 RMK A01 T00460045  RH  099%=      5-min Rain = 0
KQU1 230314Z 10008KT 05/05 A2982 RMK A01 T00460045  RH  099%=      5-min Rain = 0
KQU1 230315Z 10007KT 05/05 A2982 RMK A01 T00460045  RH  099%=      5-min Rain = 0
KQU1 230316Z 11007KT 05/05 A2982 RMK A01 T00460045  RH  099%=      5-min Rain = 0
KQU1 230317Z 11009KT 05/05 A2982 RMK A01 T00470046  RH  099%=      5-min Rain = 0
KQU1 230318Z 10009KT 05/05 A2982 RMK A01 T00470046  RH  099%=      5-min Rain = 0
KQU1 230319Z 11008KT 05/05 A2981 RMK A01 T00470046  RH  099%=      5-min Rain = 0
KQU1 230320Z 10007KT 05/05 A2981 RMK A01 T00470046  RH  099%=      5-min Rain = 0
KQU1 230321Z 10009KT 05/05 A2981 RMK A01 T00470046  RH  099%=      5-min Rain = 0
KQU1 230322Z 10007KT 05/05 A2981 RMK A01 T00470046  RH  099%=      5-min Rain = 0
KQU1 230323Z 09006KT 05/05 A2981 RMK A01 T00470046  RH  099%=      5-min Rain = 0
KQU1 230324Z 09007KT 05/05 A2981 RMK A01 T00470046  RH  099%=      5-min Rain = 0
KQU1 230325Z 09008KT 05/05 A2981 RMK A01 T00470046  RH  099%=      5-min Rain = 0
KQU1 230326Z 09007KT 05/05 A2981 RMK A01 T00470046  RH  099%=      5-min Rain = 0
KQU1 230327Z 08007KT 05/05 A2981 RMK A01 T00470046  RH  099%=      5-min Rain = 0
KQU1 230328Z 09008KT 05/05 A2981 RMK A01 T00470046  RH  099%=      5-min Rain = 0
KQU1 230329Z 09009KT 05/05 A2981 RMK A01 T00470046  RH  099%=      5-min Rain = 0.01
KQU1 230330Z 09008KT 05/05 A2982 RMK A01 T00470046  RH  099%=      5-min Rain = 0
KQU1 230331Z 09009KT 05/05 A2982 RMK A01 T00470047  RH  099%=      5-min Rain = 0
KQU1 230332Z 09010KT 05/05 A2982 RMK A01 T00480047  RH  099%=      5-min Rain = 0
KQU1 230333Z 09008KT 05/05 A2982 RMK A01 T00480047  RH  099%=      5-min Rain = 0
KQU1 230334Z 09007KT 05/05 A2982 RMK A01 T00480047  RH  100%=      5-min Rain = 0
KQU1 230335Z 09007KT 05/05 A2982 RMK A01 T00480047  RH  100%=      5-min Rain = 0
KQU1 230336Z 10008KT 05/05 A2982 RMK A01 T00480047  RH  100%=      5-min Rain = 0
KQU1 230337Z 10008KT 05/05 A2982 RMK A01 T00480047  RH  100%=      5-min Rain = 0
KQU1 230338Z 10009KT 05/05 A2982 RMK A01 T00480047  RH  100%=      5-min Rain = 0
KQU1 230339Z 10008KT 05/05 A2982 RMK A01 T00480047  RH  100%=      5-min Rain = 0
KQU1 230340Z 10008KT 05/05 A2982 RMK A01 T00480047  RH  100%=      5-min Rain = 0
KQU1 230341Z 10007KT 05/05 A2982 RMK A01 T00480047  RH  100%=      5-min Rain = 0
KQU1 230342Z 10007KT 05/05 A2982 RMK A01 T00480047  RH  100%=      5-min Rain = 0
KQU1 230343Z 10007KT 05/05 A2982 RMK A01 T00480047  RH  100%=      5-min Rain = 0
KQU1 230344Z 10009KT 05/05 A2981 RMK A01 T00480047  RH  100%=      5-min Rain = 0
KQU1 230345Z 10009KT 05/05 A2981 RMK A01 T00480047  RH  100%=      5-min Rain = 0
KQU1 230346Z 10009KT 05/05 A2981 RMK A01 T00480047  RH  100%=      5-min Rain = 0
KQU1 230347Z 10008KT 05/05 A2981 RMK A01 T00470047  RH  100%=      5-min Rain = 0
KQU1 230348Z 11008KT 05/05 A2981 RMK A01 T00470047  RH  100%=      5-min Rain = 0
KQU1 230349Z 11008KT 05/05 A2981 RMK A01 T00480047  RH  100%=      5-min Rain = 0
KQU1 230350Z 11009KT 05/05 A2981 RMK A01 T00480047  RH  100%=      5-min Rain = 0
KQU1 230351Z 11010KT 05/05 A2981 RMK A01 T00480047  RH  100%=      5-min Rain = 0
KQU1 230352Z 11007KT 05/05 A2981 RMK A01 T00480047  RH  100%=      5-min Rain = 0
KQU1 230353Z 11007KT 05/05 A2981 RMK A01 T00480047  RH  100%=      5-min Rain = 0
KQU1 230354Z 11009KT 05/05 A2981 RMK A01 T00480047  RH  100%=      5-min Rain = 0
KQU1 230355Z 10009KT 05/05 A2981 RMK A01 T00480047  RH  100%=      5-min Rain = 0
KQU1 230356Z 11010KT 05/05 A2981 RMK A01 T00480047  RH  100%=      5-min Rain = 0
KQU1 230357Z 10010KT 05/05 A298 RMK A01 T00480047  RH  100%=      5-min Rain = 0
KQU1 230358Z 10010KT 05/05 A298 RMK A01 T00480047  RH  100%=      5-min Rain = 0
KQU1 230359Z 10009KT 05/05 A298 RMK A01 T00480047  RH  100%=      5-min Rain = 0
KQU1 230400Z 10009KT 05/05 A298 RMK A01 T00480047  RH  100%=      5-min Rain = 0
KQU1 230401Z 10006KT 05/05 A298 RMK A01 T00480047  RH  100%=      5-min Rain = 0
KQU1 230402Z 10006KT 05/05 A2981 RMK A01 T00480047  RH  100%=      5-min Rain = 0
KQU1 230403Z 10006KT 05/05 A2981 RMK A01 T00480048  RH  100%=      5-min Rain = 0
KQU1 230404Z 10006KT 05/05 A2981 RMK A01 T00480048  RH  100%=      5-min Rain = 0
KQU1 230405Z 11007KT 05/05 A2981 RMK A01 T00480048  RH  100%=      5-min Rain = 0
KQU1 230406Z 10009KT 05/05 A2981 RMK A01 T00480048  RH  100%=      5-min Rain = 0
KQU1 230407Z 10009KT 05/05 A2981 RMK A01 T00480048  RH  100%=      5-min Rain = 0
KQU1 230408Z 09010KT 05/05 A298 RMK A01 T00480048  RH  100%=      5-min Rain = 0
KQU1 230409Z 09009KT 05/05 A298 RMK A01 T00480048  RH  100%=      5-min Rain = 0
KQU1 230410Z 09009KT 05/05 A298 RMK A01 T00480048  RH  100%=      5-min Rain = 0
KQU1 230411Z 09008KT 05/05 A298 RMK A01 T00480048  RH  100%=      5-min Rain = 0
KQU1 230412Z 09009KT 05/05 A298 RMK A01 T00480048  RH  100%=      5-min Rain = 0
KQU1 230413Z 10008KT 05/05 A298 RMK A01 T00480048  RH  100%=      5-min Rain = 0
KQU1 230414Z 10008KT 05/05 A298 RMK A01 T00480048  RH  100%=      5-min Rain = 0
KQU1 230415Z 09007KT 05/05 A298 RMK A01 T00480048  RH  100%=      5-min Rain = 0
KQU1 230416Z 09009KT 05/05 A2979 RMK A01 T00480048  RH  100%=      5-min Rain = 0
KQU1 230417Z 09009KT 05/05 A2979 RMK A01 T00480048  RH  100%=      5-min Rain = 0
KQU1 230418Z 10008KT 05/05 A298 RMK A01 T00480048  RH  100%=      5-min Rain = 0
KQU1 230419Z 09007KT 05/05 A298 RMK A01 T00480048  RH  100%=      5-min Rain = 0
KQU1 230420Z 10007KT 05/05 A298 RMK A01 T00480048  RH  100%=      5-min Rain = 0
KQU1 230421Z 10009KT 05/05 A298 RMK A01 T00490048  RH  100%=      5-min Rain = 0
KQU1 230422Z 10009KT 05/05 A298 RMK A01 T00490048  RH  100%=      5-min Rain = 0
KQU1 230423Z 09006KT 05/05 A298 RMK A01 T00480048  RH  100%=      5-min Rain = 0
KQU1 230424Z 10006KT 05/05 A2979 RMK A01 T00490048  RH  100%=      5-min Rain = 0
KQU1 230425Z 10007KT 05/05 A2979 RMK A01 T00490048  RH  100%=      5-min Rain = 0
KQU1 230426Z 10008KT 05/05 A2979 RMK A01 T00490048  RH  100%=      5-min Rain = 0
KQU1 230427Z 08007KT 05/05 A2979 RMK A01 T00490048  RH  100%=      5-min Rain = 0
KQU1 230428Z 09008KT 05/05 A2979 RMK A01 T00490048  RH  100%=      5-min Rain = 0
KQU1 230429Z 10008KT 05/05 A2979 RMK A01 T00490048  RH  100%=      5-min Rain = 0
KQU1 230430Z 09009KT 05/05 A2979 RMK A01 T00490048  RH  100%=      5-min Rain = 0
KQU1 230431Z 10008KT 05/05 A2979 RMK A01 T00490048  RH  100%=      5-min Rain = 0
KQU1 230432Z 09010KT 05/05 A2979 RMK A01 T00490048  RH  100%=      5-min Rain = 0
KQU1 230433Z 09009KT 05/05 A2979 RMK A01 T00480048  RH  100%=      5-min Rain = 0
KQU1 230434Z 09008KT 05/05 A2979 RMK A01 T00480048  RH  100%=      5-min Rain = 0
KQU1 230435Z 09008KT 05/05 A2979 RMK A01 T00480048  RH  100%=      5-min Rain = 0
KQU1 230436Z 08008KT 05/05 A2979 RMK A01 T00480048  RH  100%=      5-min Rain = 0
KQU1 230437Z 09008KT 05/05 A2979 RMK A01 T00490048  RH  100%=      5-min Rain = 0
KQU1 230438Z 09008KT 05/05 A2979 RMK A01 T00490048  RH  100%=      5-min Rain = 0
KQU1 230439Z 09008KT 05/05 A2979 RMK A01 T00490048  RH  100%=      5-min Rain = 0
KQU1 230440Z 08010KT 05/05 A2979 RMK A01 T00490048  RH  100%=      5-min Rain = 0
KQU1 230441Z 09010KT 05/05 A2979 RMK A01 T00480048  RH  100%=      5-min Rain = 0
KQU1 230442Z 09010KT 05/05 A2979 RMK A01 T00490048  RH  100%=      5-min Rain = 0
KQU1 230443Z 09009KT 05/05 A2979 RMK A01 T00490048  RH  100%=      5-min Rain = 0
KQU1 230444Z 09008KT 05/05 A2979 RMK A01 T00490048  RH  100%=      5-min Rain = 0
KQU1 230445Z 09008KT 05/05 A2979 RMK A01 T00480048  RH  100%=      5-min Rain = 0
KQU1 230446Z 09008KT 05/05 A2979 RMK A01 T00490048  RH  100%=      5-min Rain = 0
KQU1 230447Z 08010KT 05/05 A2979 RMK A01 T00490048  RH  100%=      5-min Rain = 0
KQU1 230448Z 09008KT 05/05 A2979 RMK A01 T00490048  RH  100%=      5-min Rain = 0
KQU1 230449Z 09008KT 05/05 A2979 RMK A01 T00490048  RH  100%=      5-min Rain = 0
KQU1 230450Z 10008KT 05/05 A2979 RMK A01 T00490048  RH  100%=      5-min Rain = 0
KQU1 230451Z 09006KT 05/05 A2979 RMK A01 T00490048  RH  100%=      5-min Rain = 0
KQU1 230452Z 09007KT 05/05 A2979 RMK A01 T00490049  RH  100%=      5-min Rain = 0
KQU1 230453Z 09010KT 05/05 A2979 RMK A01 T00490049  RH  100%=      5-min Rain = 0
KQU1 230454Z 09009KT 05/05 A2979 RMK A01 T00490049  RH  100%=      5-min Rain = 0
KQU1 230455Z 09008KT 05/05 A2979 RMK A01 T00490049  RH  100%=      5-min Rain = 0
KQU1 230456Z 10008KT 05/05 A298 RMK A01 T00490049  RH  100%=      5-min Rain = 0
KQU1 230457Z 10008KT 05/05 A298 RMK A01 T00490049  RH  100%=      5-min Rain = 0
KQU1 230458Z 10008KT 05/05 A298 RMK A01 T00490049  RH  100%=      5-min Rain = 0
KQU1 230459Z 10011KT 05/05 A298 RMK A01 T00490049  RH  100%=      5-min Rain = 0
KQU1 230500Z 10010KT 05/05 A298 RMK A01 T00490049  RH  100%=      5-min Rain = 0
KQU1 230501Z 11011KT 05/05 A298 RMK A01 T00490049  RH  100%=      5-min Rain = 0
KQU1 230502Z 11009KT 05/05 A298 RMK A01 T00490049  RH  100%=      5-min Rain = 0
KQU1 230503Z 11009KT 05/05 A2979 RMK A01 T00490049  RH  100%=      5-min Rain = 0
KQU1 230504Z 11009KT 05/05 A2979 RMK A01 T00490049  RH  100%=      5-min Rain = 0
KQU1 230505Z 11009KT 05/05 A298 RMK A01 T00490049  RH  100%=      5-min Rain = 0
KQU1 230506Z 11010KT 05/05 A298 RMK A01 T00490049  RH  100%=      5-min Rain = 0
KQU1 230507Z 11011KT 05/05 A2979 RMK A01 T00490049  RH  100%=      5-min Rain = 0
KQU1 230508Z 10009KT 05/05 A2979 RMK A01 T00490049  RH  100%=      5-min Rain = 0
KQU1 230509Z 10008KT 05/05 A2979 RMK A01 T00490049  RH  100%=      5-min Rain = 0
KQU1 230510Z 11008KT 05/05 A2979 RMK A01 T00490049  RH  100%=      5-min Rain = 0
KQU1 230511Z 11010KT 05/05 A2979 RMK A01 T00490049  RH  100%=      5-min Rain = 0
KQU1 230512Z 11009KT 05/05 A2979 RMK A01 T00490049  RH  100%=      5-min Rain = 0
KQU1 230513Z 11009KT 05/05 A2979 RMK A01 T00490049  RH  100%=      5-min Rain = 0
KQU1 230514Z 11009KT 05/05 A2979 RMK A01 T00490049  RH  100%=      5-min Rain = 0
KQU1 230515Z 11007KT 05/05 A2979 RMK A01 T00490049  RH  100%=      5-min Rain = 0
KQU1 230516Z 10009KT 05/05 A2979 RMK A01 T00490049  RH  100%=      5-min Rain = 0
KQU1 230517Z 10010KT 05/05 A2979 RMK A01 T00490049  RH  100%=      5-min Rain = 0
KQU1 230518Z 10009KT 05/05 A2979 RMK A01 T00490049  RH  100%=      5-min Rain = 0
KQU1 230519Z 09009KT 05/05 A2979 RMK A01 T00490049  RH  100%=      5-min Rain = 0
KQU1 230520Z 09009KT 05/05 A2978 RMK A01 T00490049  RH  100%=      5-min Rain = 0
KQU1 230521Z 10008KT 05/05 A2979 RMK A01 T00490049  RH  100%=      5-min Rain = 0
KQU1 230522Z 10008KT 05/05 A2979 RMK A01 T00490049  RH  100%=      5-min Rain = 0
KQU1 230523Z 10011KT 05/05 A2978 RMK A01 T00490049  RH  100%=      5-min Rain = 0
KQU1 230524Z 10010KT 05/05 A2978 RMK A01 T00490049  RH  100%=      5-min Rain = 0
KQU1 230525Z 10010KT 05/05 A2978 RMK A01 T00490049  RH  100%=      5-min Rain = 0
KQU1 230526Z 10008KT 05/05 A2978 RMK A01 T00490049  RH  100%=      5-min Rain = 0
KQU1 230527Z 11008KT 05/05 A2979 RMK A01 T00490049  RH  100%=      5-min Rain = 0
KQU1 230528Z 10008KT 05/05 A2978 RMK A01 T00490049  RH  100%=      5-min Rain = 0
KQU1 230529Z 10008KT 05/05 A2978 RMK A01 T00490049  RH  100%=      5-min Rain = 0
KQU1 230530Z 10008KT 05/05 A2978 RMK A01 T00490049  RH  100%=      5-min Rain = 0
KQU1 230531Z 09006KT 05/05 A2978 RMK A01 T00490049  RH  100%=      5-min Rain = 0
KQU1 230532Z 09007KT 05/05 A2977 RMK A01 T00490049  RH  100%=      5-min Rain = 0
KQU1 230533Z 09008KT 05/05 A2977 RMK A01 T00490049  RH  100%=      5-min Rain = 0
KQU1 230534Z 08006KT 05/05 A2976 RMK A01 T00490049  RH  100%=      5-min Rain = 0
KQU1 230535Z 07007KT 05/05 A2976 RMK A01 T00490049  RH  100%=      5-min Rain = 0
KQU1 230536Z 08007KT 05/05 A2976 RMK A01 T00490049  RH  100%=      5-min Rain = 0
KQU1 230537Z 09007KT 05/05 A2977 RMK A01 T00490049  RH  100%=      5-min Rain = 0
KQU1 230538Z 10007KT 05/05 A2977 RMK A01 T00490049  RH  100%=      5-min Rain = 0
KQU1 230539Z 09006KT 05/05 A2977 RMK A01 T00490049  RH  100%=      5-min Rain = 0
KQU1 230540Z 10007KT 05/05 A2977 RMK A01 T00490049  RH  100%=      5-min Rain = 0
KQU1 230541Z 09006KT 05/05 A2977 RMK A01 T00490049  RH  100%=      5-min Rain = 0
KQU1 230542Z 10007KT 05/05 A2977 RMK A01 T00490049  RH  100%=      5-min Rain = 0
KQU1 230543Z 10008KT 05/05 A2977 RMK A01 T00490049  RH  100%=      5-min Rain = 0
KQU1 230544Z 10009KT 05/05 A2977 RMK A01 T00490049  RH  100%=      5-min Rain = 0
KQU1 230545Z 10008KT 05/05 A2977 RMK A01 T00490049  RH  100%=      5-min Rain = 0
KQU1 230546Z 09007KT 05/05 A2976 RMK A01 T00490049  RH  100%=      5-min Rain = 0
KQU1 230547Z 08007KT 05/05 A2976 RMK A01 T00490049  RH  100%=      5-min Rain = 0
KQU1 230548Z 08006KT 05/05 A2976 RMK A01 T00490049  RH  100%=      5-min Rain = 0
KQU1 230549Z 12006KT 05/05 A2977 RMK A01 T00490049  RH  100%=      5-min Rain = 0
KQU1 230550Z 13009KT 05/05 A2978 RMK A01 T00490049  RH  100%=      5-min Rain = 0
KQU1 230551Z 11008KT 05/05 A2978 RMK A01 T00490049  RH  100%=      5-min Rain = 0
KQU1 230552Z 11006KT 05/05 A2977 RMK A01 T00490049  RH  100%=      5-min Rain = 0
KQU1 230553Z 11008KT 05/05 A2978 RMK A01 T00490049  RH  100%=      5-min Rain = 0
KQU1 230554Z 10007KT 05/05 A2977 RMK A01 T00490049  RH  100%=      5-min Rain = 0
KQU1 230555Z 08008KT 05/05 A2975 RMK A01 T00490049  RH  100%=      5-min Rain = 0
KQU1 230556Z 08009KT 05/05 A2974 RMK A01 T00490049  RH  100%=      5-min Rain = 0
KQU1 230557Z 09008KT 05/05 A2975 RMK A01 T00490049  RH  100%=      5-min Rain = 0
KQU1 230558Z 11008KT 05/05 A2976 RMK A01 T00490049  RH  100%=      5-min Rain = 0
KQU1 230559Z 12009KT 05/05 A2977 RMK A01 T00490049  RH  100%=      5-min Rain = 0

Page generated in 0.1417 seconds.